CW9372 Weather Reports


Display with metric or nautical units.
time (UTC)temp
F
wind
direction
speed
MPH
gust
MPH
rain 1hr
in
rain 24hr
in
rain mn
in
humidity
%
barometer
mb
20260509090258 56 221 3.0 8.0 0.00 0.00 0.00 78 1003.5
20260509090148 56 216 3.0 8.0 0.00 0.00 0.00 78 1003.5
20260509090055 56 209 3.0 8.0 0.00 0.00 0.00 78 1003.5
20260509085925 56 120 4.0 13.0 0.00 0.00 0.00 78 1003.5
20260509085835 56 165 4.0 13.0 0.00 0.00 0.00 78 1003.6
20260509085744 56 124 3.0 13.0 0.00 0.00 0.00 78 1003.4
20260509085656 56 195 4.0 13.0 0.00 0.00 0.00 78 1003.4
20260509085607 56 232 5.0 13.0 0.00 0.00 0.00 78 1003.4
20260509085456 56 176 5.0 13.0 0.00 0.00 0.00 78 1003.5
20260509085347 56 211 5.0 13.0 0.00 0.00 0.00 78 1003.4
20260509085240 56 221 6.0 13.0 0.00 0.00 0.00 78 1003.4
20260509085154 56 223 4.0 13.0 0.00 0.00 0.00 78 1003.4
20260509085059 56 218 2.0 11.0 0.00 0.00 0.00 78 1003.5
20260509084929 56 214 3.0 11.0 0.00 0.00 0.00 78 1003.5
20260509084842 56 255 4.0 11.0 0.00 0.00 0.00 78 1003.6
20260509084732 56 266 5.0 11.0 0.00 0.00 0.00 78 1003.6
20260509084644 56 236 5.0 11.0 0.00 0.00 0.00 78 1003.6
20260509084549 56 184 5.0 11.0 0.00 0.00 0.00 78 1003.6
20260509084439 56 205 4.0 11.0 0.00 0.00 0.00 78 1003.6
20260509084331 56 229 4.0 11.0 0.00 0.00 0.00 78 1003.6
20260509084226 56 213 5.0 12.0 0.00 0.00 0.00 78 1003.6
20260509084137 56 140 6.0 12.0 0.00 0.00 0.00 78 1003.7
20260509084024 56 263 4.0 12.0 0.00 0.00 0.00 78 1003.7
20260509083936 56 264 3.0 12.0 0.00 0.00 0.00 78 1003.7
20260509083847 56 235 3.0 12.0 0.00 0.00 0.00 78 1003.7
20260509083758 56 244 4.0 12.0 0.00 0.00 0.00 78 1003.6
20260509083628 56 207 6.0 12.0 0.00 0.00 0.00 78 1003.6
20260509083533 56 209 6.0 12.0 0.00 0.00 0.00 78 1003.7
20260509083425 56 249 5.0 12.0 0.00 0.00 0.00 78 1003.7
20260509083341 56 172 5.0 12.0 0.00 0.00 0.00 78 1003.7
20260509083232 56 225 4.0 11.0 0.00 0.00 0.00 78 1003.7
20260509083142 56 176 3.0 11.0 0.00 0.00 0.00 78 1003.8
20260509083031 56 231 3.0 11.0 0.00 0.00 0.00 78 1003.7
20260509082942 56 115 3.0 11.0 0.00 0.00 0.00 78 1003.7
20260509082833 56 200 4.0 11.0 0.00 0.00 0.00 78 1003.7
20260509082725 56 217 5.0 11.0 0.00 0.00 0.00 78 1003.7
20260509082637 56 201 3.0 10.0 0.00 0.00 0.00 78 1003.7
20260509082527 56 221 3.0 8.0 0.00 0.00 0.00 78 1003.7
20260509082439 56 209 3.0 8.0 0.00 0.00 0.00 78 1003.8
20260509082328 56 274 3.0 8.0 0.00 0.00 0.00 78 1003.8
20260509082241 56 162 3.0 8.0 0.00 0.00 0.00 78 1003.8
20260509082130 56 190 3.0 8.0 0.00 0.00 0.00 78 1003.8
20260509082036 56 228 2.0 8.0 0.00 0.00 0.00 78 1003.8
20260509081926 56 192 2.0 8.0 0.00 0.00 0.00 78 1003.7
20260509081837 56 188 2.0 8.0 0.00 0.00 0.00 78 1003.8
20260509081750 56 290 3.0 8.0 0.00 0.00 0.00 78 1003.8
20260509081638 56 290 4.0 8.0 0.00 0.00 0.00 78 1003.8
20260509081549 56 187 3.0 9.0 0.00 0.00 0.00 78 1003.9
20260509081438 56 238 2.0 9.0 0.00 0.00 0.00 78 1003.8
20260509081329 56 252 3.0 9.0 0.00 0.00 0.00 78 1003.8
20260509081241 56 227 3.0 9.0 0.00 0.00 0.00 78 1003.8
20260509081131 56 236 2.0 9.0 0.00 0.00 0.00 78 1003.8
20260509081036 56 233 3.0 9.0 0.00 0.00 0.00 78 1003.8
20260509080947 56 243 3.0 9.0 0.00 0.00 0.00 78 1003.8
20260509080858 56 175 3.0 10.0 0.00 0.00 0.00 78 1003.8
20260509080808 56 227 3.0 10.0 0.00 0.00 0.00 78 1003.8
20260509080721 56 144 3.0 10.0 0.00 0.00 0.00 78 1004.0
20260509080631 56 229 2.0 10.0 0.00 0.00 0.00 78 1003.9
20260509080519 56 210 2.0 10.0 0.00 0.00 0.00 78 1003.9
20260509080411 56 219 4.0 10.0 0.00 0.00 0.00 78 1004.0
20260509080300 56 198 3.0 10.0 0.00 0.00 0.00 78 1004.0
20260509080130 56 231 4.0 13.0 0.00 0.00 0.00 78 1004.0
20260509080036 56 189 4.0 13.0 0.00 0.00 0.00 78 1003.9
20260509075950 56 196 3.0 13.0 0.00 0.00 0.00 78 1003.9
20260509075901 56 201 3.0 13.0 0.00 0.00 0.00 78 1004.1
20260509075754 56 266 3.0 13.0 0.00 0.00 0.00 78 1004.1
20260509075705 56 207 3.0 13.0 0.00 0.00 0.00 78 1004.1
20260509075529 56 204 4.0 13.0 0.00 0.00 0.00 78 1004.0
20260509075424 56 230 6.0 13.0 0.00 0.00 0.00 78 1004.1
20260509075336 56 232 6.0 13.0 0.00 0.00 0.00 78 1004.2
20260509075228 56 268 4.0 11.0 0.00 0.00 0.00 78 1004.0
20260509075142 56 194 4.0 11.0 0.00 0.00 0.00 78 1004.1
20260509075027 56 220 5.0 11.0 0.00 0.00 0.00 78 1004.0
20260509074939 56 165 3.0 11.0 0.00 0.00 0.00 78 1004.1
20260509074830 56 231 2.0 11.0 0.00 0.00 0.00 77 1004.1
20260509074742 56 172 3.0 12.0 0.00 0.00 0.00 77 1004.1
20260509074632 56 230 5.0 12.0 0.00 0.00 0.00 78 1004.1
20260509074542 56 246 5.0 12.0 0.00 0.00 0.00 78 1004.2
20260509074454 56 209 4.0 12.0 0.00 0.00 0.00 77 1004.1
20260509074324 56 176 4.0 12.0 0.00 0.00 0.00 78 1004.0
20260509074236 56 205 4.0 12.0 0.00 0.00 0.00 77 1004.1
20260509074127 56 229 4.0 12.0 0.00 0.00 0.00 77 1004.1
20260509074035 56 229 5.0 12.0 0.00 0.00 0.00 77 1004.1
20260509073947 56 183 5.0 12.0 0.00 0.00 0.00 78 1004.1
20260509073857 56 196 4.0 8.0 0.00 0.00 0.00 77 1004.1
20260509073750 56 221 3.0 12.0 0.00 0.00 0.00 77 1004.1
20260509073701 56 256 3.0 12.0 0.00 0.00 0.00 77 1004.1
20260509073546 56 223 4.0 12.0 0.00 0.00 0.00 77 1004.0
20260509073440 56 204 4.0 12.0 0.00 0.00 0.00 77 1004.1
20260509073330 56 199 3.0 12.0 0.00 0.00 0.00 77 1004.2
20260509073242 56 210 3.0 12.0 0.00 0.00 0.00 77 1004.2
20260509073133 56 212 5.0 12.0 0.00 0.00 0.00 77 1004.2
20260509073039 56 173 6.0 12.0 0.00 0.00 0.00 77 1004.2
20260509072952 56 232 5.0 12.0 0.00 0.00 0.00 77 1004.2
20260509072903 56 172 5.0 10.0 0.00 0.00 0.00 77 1004.2
20260509072732 56 127 5.0 10.0 0.00 0.00 0.00 77 1004.3
20260509072642 56 200 5.0 10.0 0.00 0.00 0.00 77 1004.3
20260509072532 56 212 4.0 10.0 0.00 0.00 0.00 77 1004.2
20260509072442 56 212 4.0 10.0 0.00 0.00 0.00 77 1004.4
20260509072333 56 259 3.0 10.0 0.00 0.00 0.00 77 1004.4
20260509072225 56 245 3.0 10.0 0.00 0.00 0.00 77 1004.4
20260509072136 56 221 4.0 10.0 0.00 0.00 0.00 77 1004.3
20260509072043 56 44 4.0 10.0 0.00 0.00 0.00 77 1004.3
20260509071934 56 214 3.0 10.0 0.00 0.00 0.00 77 1004.4
20260509071825 56 252 3.0 10.0 0.00 0.00 0.00 77 1004.4
20260509071736 56 215 2.0 10.0 0.00 0.00 0.00 77 1004.5
20260509071654 56 224 2.0 10.0 0.00 0.00 0.00 77 1004.5
20260509071605 56 233 4.0 11.0 0.00 0.00 0.00 77 1004.5
20260509071454 56 267 4.0 12.0 0.00 0.00 0.00 77 1004.5
20260509071344 56 217 5.0 12.0 0.00 0.00 0.00 77 1004.6
20260509071235 56 191 5.0 12.0 0.00 0.00 0.00 77 1004.6
20260509071147 56 200 5.0 12.0 0.00 0.00 0.00 77 1004.6
20260509071054 56 186 6.0 12.0 0.00 0.00 0.00 77 1004.6
20260509070944 56 178 5.0 12.0 0.00 0.00 0.00 77 1004.7
20260509070834 56 212 6.0 12.0 0.00 0.00 0.00 77 1004.7
20260509070725 56 261 6.0 12.0 0.00 0.00 0.00 77 1004.7
20260509070640 56 192 4.0 11.0 0.00 0.00 0.00 77 1004.7
20260509070527 56 82 3.0 11.0 0.00 0.00 0.00 77 1004.8
20260509070437 56 225 3.0 11.0 0.00 0.00 0.00 77 1004.7
20260509070348 56 232 3.0 11.0 0.00 0.00 0.00 77 1004.7
20260509070259 56 221 3.0 11.0 0.00 0.00 0.00 77 1004.8
20260509070148 56 217 5.0 11.0 0.00 0.00 0.00 77 1004.8
20260509070034 56 207 5.0 11.0 0.00 0.00 0.00 77 1004.9
20260509065944 56 246 4.0 11.0 0.00 0.00 0.00 77 1004.8
20260509065835 56 232 5.0 10.0 0.00 0.00 0.00 77 1004.8
20260509065726 56 255 4.0 10.0 0.00 0.00 0.00 77 1004.9
20260509065641 55 191 5.0 10.0 0.00 0.00 0.00 77 1004.9
20260509065526 55 212 4.0 9.0 0.00 0.00 0.00 77 1005.0
20260509065439 55 249 3.0 13.0 0.00 0.00 0.00 77 1004.9
20260509065329 55 245 3.0 13.0 0.00 0.00 0.00 77 1005.0
20260509065242 55 192 3.0 13.0 0.00 0.00 0.00 77 1004.9
20260509065133 55 188 3.0 13.0 0.00 0.00 0.00 77 1005.0
20260509065038 55 203 3.0 13.0 0.00 0.00 0.00 77 1005.0
20260509064930 55 86 3.0 13.0 0.00 0.00 0.00 77 1005.1
20260509064826 55 225 3.0 13.0 0.00 0.00 0.00 77 1004.9
20260509064628 54 217 4.0 13.0 0.00 0.00 0.00 77 1005.0
20260509064535 54 238 4.0 11.0 0.00 0.00 0.00 78 1005.0
20260509064425 54 255 4.0 11.0 0.00 0.00 0.00 78 1005.0
20260509064337 53 198 3.0 10.0 0.00 0.00 0.00 76 1005.0
20260509064251 53 217 2.0 5.0 0.00 0.00 0.00 76 1005.0
20260509064201 53 227 2.0 5.0 0.00 0.00 0.00 75 1004.9
20260509064112 53 172 1.0 4.0 0.00 0.00 0.00 74 1005.0
20260509064018 53 169 2.0 3.0 0.00 0.00 0.00 74 1005.0
20260509063845 53 226 1.0 3.0 0.00 0.00 0.00 74 1005.0
20260509063801 52 239 0.0 2.0 0.00 0.00 0.00 72 1005.0
20260509063629 52 217 1.0 2.0 0.00 0.00 0.00 73 1005.1
20260509063535 52 217 1.0 2.0 0.00 0.00 0.00 73 1005.1
20260509063450 52 255 1.0 2.0 0.00 0.00 0.00 73 1005.1
20260509063400 52 242 0.0 2.0 0.00 0.00 0.00 71 1005.0
20260509063251 52 242 0.0 2.0 0.00 0.00 0.00 72 1005.0
20260509063203 52 245 0.0 2.0 0.00 0.00 0.00 71 1005.1
20260509063028 52 199 0.0 2.0 0.00 0.00 0.00 71 1005.1
20260509062938 52 199 0.0 2.0 0.00 0.00 0.00 71 1005.0
20260509062829 52 199 0.0 2.0 0.00 0.00 0.00 70 1005.0
20260509062745 52 197 1.0 2.0 0.00 0.00 0.00 70 1005.1
20260509062614 52 174 1.0 2.0 0.00 0.00 0.00 69 1005.0
20260509062521 52 225 1.0 2.0 0.00 0.00 0.00 69 1005.0
20260509062412 52 194 1.0 2.0 0.00 0.00 0.00 68 1005.1
20260509062323 52 231 0.0 2.0 0.00 0.00 0.00 69 1005.0
20260509062215 52 177 0.0 2.0 0.00 0.00 0.00 68 1005.0
20260509062105 52 177 0.0 2.0 0.00 0.00 0.00 67 1005.1
20260509061935 52 182 0.0 2.0 0.00 0.00 0.00 67 1005.1
20260509061846 52 174 0.0 2.0 0.00 0.00 0.00 66 1005.1
20260509061736 52 191 0.0 2.0 0.00 0.00 0.00 66 1005.1
20260509061646 52 210 0.0 2.0 0.00 0.00 0.00 65 1005.0
20260509061532 52 210 0.0 2.0 0.00 0.00 0.00 65 1005.2
20260509061426 52 259 0.0 3.0 0.00 0.00 0.00 65 1005.3
20260509061339 52 156 0.0 4.0 0.00 0.00 0.00 64 1005.3
20260509061229 52 139 0.0 4.0 0.00 0.00 0.00 64 1005.3
20260509061142 52 153 0.0 4.0 0.00 0.00 0.00 63 1005.4
20260509061047 52 152 1.0 4.0 0.00 0.00 0.00 63 1005.5
20260509060937 52 152 1.0 4.0 0.00 0.00 0.00 62 1005.4
20260509060828 52 219 1.0 4.0 0.00 0.00 0.00 62 1005.3
20260509060740 52 219 1.0 4.0 0.00 0.00 0.00 62 1005.5
20260509060631 52 219 2.0 4.0 0.00 0.00 0.00 62 1005.5
20260509060541 52 155 1.0 4.0 0.00 0.00 0.00 62 1005.4
20260509060452 52 209 1.0 4.0 0.00 0.00 0.00 61 1005.4
20260509060342 52 210 1.0 4.0 0.00 0.00 0.00 61 1005.5
20260509060254 52 210 1.0 4.0 0.00 0.00 0.00 61 1005.5
20260509060205 52 208 1.0 2.0 0.00 0.00 0.00 60 1005.5
20260509060029 52 210 1.0 2.0 0.00 0.00 0.00 59 1005.5
20260509055940 52 218 1.0 2.0 0.00 0.00 0.00 59 1005.5
20260509055853 52 216 0.0 3.0 0.00 0.00 0.00 58 1005.5
20260509055805 52 216 0.0 3.0 0.00 0.00 0.00 58 1005.4
20260509055635 52 216 0.0 3.0 0.00 0.00 0.00 57 1005.5
20260509055525 52 184 0.0 3.0 0.00 0.00 0.00 57 1005.5
20260509055436 52 190 0.0 3.0 0.00 0.00 0.00 57 1005.5
20260509055326 52 190 0.0 3.0 0.00 0.00 0.00 55 1005.5
20260509055238 53 202 0.0 3.0 0.00 0.00 0.00 55 1005.5
20260509055129 53 202 1.0 3.0 0.00 0.00 0.00 55 1005.6
20260509055035 53 210 1.0 3.0 0.00 0.00 0.00 55 1005.6
20260509054926 53 221 0.0 3.0 0.00 0.00 0.00 55 1005.5
20260509054836 53 221 0.0 5.0 0.00 0.00 0.00 55 1005.6
20260509054727 53 221 0.0 5.0 0.00 0.00 0.00 54 1005.5
20260509054642 53 221 1.0 5.0 0.00 0.00 0.00 54 1005.5
20260509054528 53 207 1.0 5.0 0.00 0.00 0.00 54 1005.5
20260509054439 53 209 1.0 6.0 0.00 0.00 0.00 54 1005.5
20260509054329 53 218 1.0 6.0 0.00 0.00 0.00 53 1005.6
20260509054239 53 172 1.0 6.0 0.00 0.00 0.00 53 1005.6
20260509054153 53 198 2.0 6.0 0.00 0.00 0.00 53 1005.6
20260509054103 53 193 1.0 6.0 0.00 0.00 0.00 53 1005.5
20260509053933 53 232 1.0 6.0 0.00 0.00 0.00 53 1005.5
20260509053846 53 252 1.0 6.0 0.00 0.00 0.00 52 1005.5
20260509053757 53 186 1.0 6.0 0.00 0.00 0.00 52 1005.5
20260509053631 53 193 3.0 6.0 0.00 0.00 0.00 52 1005.6
20260509053536 53 201 2.0 6.0 0.00 0.00 0.00 52 1005.6
20260509053429 53 199 1.0 5.0 0.00 0.00 0.00 52 1005.5
20260509053340 53 207 2.0 5.0 0.00 0.00 0.00 52 1005.5
20260509053232 53 143 2.0 5.0 0.00 0.00 0.00 52 1005.6
20260509053142 53 166 1.0 5.0 0.00 0.00 0.00 52 1005.6
20260509053027 53 170 1.0 5.0 0.00 0.00 0.00 51 1005.6
20260509052939 53 161 1.0 5.0 0.00 0.00 0.00 51 1005.6
20260509052832 53 165 2.0 6.0 0.00 0.00 0.00 51 1005.6
20260509052744 53 215 2.0 6.0 0.00 0.00 0.00 51 1005.6
20260509052543 53 124 3.0 6.0 0.00 0.00 0.00 51 1005.7
20260509052454 53 231 2.0 6.0 0.00 0.00 0.00 51 1005.6
20260509052325 53 225 1.0 6.0 0.00 0.00 0.00 51 1005.6
20260509052236 53 176 1.0 6.0 0.00 0.00 0.00 51 1005.6
20260509052148 53 231 2.0 6.0 0.00 0.00 0.00 51 1005.6
20260509052033 53 207 3.0 6.0 0.00 0.00 0.00 51 1005.7
20260509051925 53 209 2.0 4.0 0.00 0.00 0.00 51 1005.7
20260509051835 53 181 2.0 4.0 0.00 0.00 0.00 51 1005.7
20260509051730 53 218 2.0 4.0 0.00 0.00 0.00 50 1005.7
20260509051640 53 162 1.0 5.0 0.00 0.00 0.00 50 1005.6
20260509051545 53 215 0.0 5.0 0.00 0.00 0.00 50 1005.6
20260509051437 53 168 1.0 5.0 0.00 0.00 0.00 50 1005.7
20260509051347 53 139 2.0 5.0 0.00 0.00 0.00 50 1005.7
20260509051259 53 220 2.0 5.0 0.00 0.00 0.00 50 1005.6
20260509051128 53 208 1.0 5.0 0.00 0.00 0.00 50 1005.6
20260509051033 53 207 1.0 6.0 0.00 0.00 0.00 50 1005.7
20260509050943 54 205 2.0 6.0 0.00 0.00 0.00 50 1005.7
20260509050857 53 222 2.0 6.0 0.00 0.00 0.00 50 1005.7
20260509050807 53 236 1.0 6.0 0.00 0.00 0.00 49 1005.7
20260509050657 53 226 2.0 6.0 0.00 0.00 0.00 49 1005.7
20260509050525 54 208 2.0 6.0 0.00 0.00 0.00 49 1005.7
20260509050438 53 209 2.0 6.0 0.00 0.00 0.00 49 1005.7
20260509050348 53 233 2.0 6.0 0.00 0.00 0.00 49 1005.7
20260509050259 53 217 2.0 6.0 0.00 0.00 0.00 49 1005.7
20260509050128 53 211 1.0 4.0 0.00 0.00 0.00 49 1005.6
20260509050036 53 242 1.0 4.0 0.00 0.00 0.00 49 1005.6
20260509045926 53 89 0.0 4.0 0.00 0.00 0.00 49 1005.6
20260509045836 54 155 1.0 4.0 0.00 0.00 0.00 49 1005.6
20260509045747 53 155 2.0 4.0 0.00 0.00 0.00 49 1005.6
20260509045639 54 108 2.0 4.0 0.00 0.00 0.00 49 1005.6
20260509045528 54 208 1.0 4.0 0.00 0.00 0.00 49 1005.7
20260509045438 54 231 1.0 3.0 0.00 0.00 0.00 48 1005.7
20260509045329 54 103 1.0 6.0 0.00 0.00 0.00 48 1005.6
20260509045240 54 215 1.0 6.0 0.00 0.00 0.00 48 1005.7
20260509045131 54 146 1.0 6.0 0.00 0.00 0.00 48 1005.7
20260509045037 54 198 1.0 6.0 0.00 0.00 0.00 48 1005.7
20260509044951 54 67 1.0 6.0 0.00 0.00 0.00 48 1005.7
20260509044841 54 141 2.0 6.0 0.00 0.00 0.00 48 1005.7
20260509044732 54 221 2.0 6.0 0.00 0.00 0.00 48 1005.7
20260509044646 54 219 2.0 6.0 0.00 0.00 0.00 48 1005.7
20260509044559 54 217 2.0 6.0 0.00 0.00 0.00 48 1005.7
20260509044504 54 138 2.0 6.0 0.00 0.00 0.00 48 1005.7
20260509044357 54 214 2.0 6.0 0.00 0.00 0.00 48 1005.7
20260509044308 54 158 2.0 6.0 0.00 0.00 0.00 47 1005.7
20260509044219 54 212 2.0 6.0 0.00 0.00 0.00 47 1005.7
20260509044108 54 193 2.0 6.0 0.00 0.00 0.00 47 1005.6
20260509043958 54 228 1.0 6.0 0.00 0.00 0.00 47 1005.7
20260509043828 54 229 1.0 6.0 0.00 0.00 0.00 47 1005.7
20260509043739 54 185 2.0 6.0 0.00 0.00 0.00 47 1005.7
20260509043630 54 105 2.0 6.0 0.00 0.00 0.00 47 1005.8
20260509043540 54 158 2.0 6.0 0.00 0.00 0.00 47 1005.7
20260509043430 54 200 3.0 6.0 0.00 0.00 0.00 47 1005.7
20260509043341 53 219 2.0 6.0 0.00 0.00 0.00 47 1005.7
20260509043232 53 193 2.0 6.0 0.00 0.00 0.00 47 1005.8
20260509043143 53 195 2.0 4.0 0.00 0.00 0.00 47 1005.8
20260509043049 53 198 2.0 4.0 0.00 0.00 0.00 47 1005.8
20260509042938 53 172 2.0 4.0 0.00 0.00 0.00 47 1005.8
20260509042852 53 220 1.0 4.0 0.00 0.00 0.00 47 1005.8
20260509042804 53 170 1.0 4.0 0.00 0.00 0.00 47 1005.8
20260509042653 53 160 1.0 4.0 0.00 0.00 0.00 47 1005.8
20260509042538 53 162 2.0 4.0 0.00 0.00 0.00 47 1005.9
20260509042432 53 214 1.0 4.0 0.00 0.00 0.00 47 1005.8
20260509042325 53 110 2.0 4.0 0.00 0.00 0.00 47 1005.8
20260509042235 53 185 2.0 4.0 0.00 0.00 0.00 47 1005.9
20260509042144 53 207 2.0 4.0 0.00 0.00 0.00 47 1006.0
20260509042056 53 193 2.0 4.0 0.00 0.00 0.00 47 1006.0
20260509042002 53 211 1.0 4.0 0.00 0.00 0.00 47 1005.9
20260509041914 53 172 0.0 3.0 0.00 0.00 0.00 47 1005.9
20260509041803 53 190 0.0 3.0 0.00 0.00 0.00 47 1005.9
20260509041714 53 184 1.0 3.0 0.00 0.00 0.00 47 1005.9
20260509041558 53 189 1.0 3.0 0.00 0.00 0.00 47 1005.9
20260509041448 53 211 0.0 1.0 0.00 0.00 0.00 47 1005.9
20260509041343 53 209 1.0 1.0 0.00 0.00 0.00 47 1005.9
20260509041234 53 153 0.0 1.0 0.00 0.00 0.00 47 1005.9
20260509041124 53 216 0.0 1.0 0.00 0.00 0.00 47 1006.0
20260509041031 53 215 0.0 1.0 0.00 0.00 0.00 47 1005.9
20260509040942 53 207 0.0 1.0 0.00 0.00 0.00 47 1006.0
20260509040833 53 233 0.0 1.0 0.00 0.00 0.00 47 1005.9
20260509040724 53 181 0.0 1.0 0.00 0.00 0.00 47 1006.0
20260509040635 53 189 0.0 1.0 0.00 0.00 0.00 47 1006.0
20260509040524 53 190 0.0 1.0 0.00 0.00 0.00 47 1006.0
20260509040435 53 188 0.0 1.0 0.00 0.00 0.00 46 1006.0
20260509040347 53 182 0.0 1.0 0.00 0.00 0.00 46 1006.0
20260509040236 53 181 0.0 1.0 0.00 0.00 0.00 46 1006.1
20260509040149 53 181 0.0 1.0 0.00 0.00 0.00 46 1006.1
20260509040056 53 181 0.0 3.0 0.00 0.00 0.00 46 1006.1
20260509035937 53 181 0.0 3.0 0.00 0.00 0.00 46 1006.1
20260509035828 53 155 0.0 3.0 0.00 0.00 0.00 46 1006.1
20260509035740 53 157 0.0 3.0 0.00 0.00 0.00 46 1006.1
20260509035652 53 205 0.0 3.0 0.00 0.00 0.00 46 1006.1
20260509035603 54 205 0.0 3.0 0.00 0.00 0.00 46 1006.1
20260509035438 54 105 1.0 3.0 0.00 0.00 0.00 46 1006.2
20260509035347 54 85 1.0 3.0 0.00 0.00 0.00 45 1006.1
20260509035300 54 85 1.0 3.0 0.00 0.00 0.00 46 1006.2
20260509035150 54 188 0.0 2.0 0.00 0.00 0.00 46 1006.2
20260509035054 54 155 0.0 2.0 0.00 0.00 0.00 45 1006.3
20260509034943 54 165 0.0 2.0 0.00 0.00 0.00 45 1006.2
20260509034834 54 167 0.0 3.0 0.00 0.00 0.00 45 1006.2
20260509034745 54 157 0.0 3.0 0.00 0.00 0.00 45 1006.2
20260509034635 54 169 0.0 3.0 0.00 0.00 0.00 45 1006.2
20260509034541 54 184 1.0 3.0 0.00 0.00 0.00 45 1006.3
20260509034453 54 122 1.0 3.0 0.00 0.00 0.00 45 1006.3
20260509034328 54 244 0.0 3.0 0.00 0.00 0.00 45 1006.3
20260509034239 54 106 1.0 3.0 0.00 0.00 0.00 45 1006.3
20260509034153 54 206 1.0 3.0 0.00 0.00 0.00 45 1006.3
20260509034104 54 153 1.0 3.0 0.00 0.00 0.00 45 1006.3
20260509034011 54 205 0.0 3.0 0.00 0.00 0.00 45 1006.4
20260509033840 54 217 0.0 2.0 0.00 0.00 0.00 45 1006.3
20260509033732 54 211 0.0 2.0 0.00 0.00 0.00 44 1006.4
20260509033644 54 148 0.0 2.0 0.00 0.00 0.00 44 1006.4
20260509033530 54 71 0.0 1.0 0.00 0.00 0.00 44 1006.4
20260509033426 54 167 0.0 1.0 0.00 0.00 0.00 44 1006.4
20260509033336 54 161 0.0 1.0 0.00 0.00 0.00 44 1006.5
20260509033228 54 172 0.0 1.0 0.00 0.00 0.00 43 1006.4
20260509033139 54 172 0.0 1.0 0.00 0.00 0.00 43 1006.4
20260509033026 54 172 0.0 1.0 0.00 0.00 0.00 43 1006.3
20260509032937 54 207 0.0 1.0 0.00 0.00 0.00 43 1006.4
20260509032848 54 198 0.0 2.0 0.00 0.00 0.00 43 1006.4
20260509032801 54 198 0.0 2.0 0.00 0.00 0.00 43 1006.4
20260509032711 54 198 0.0 2.0 0.00 0.00 0.00 43 1006.4
20260509032602 54 151 0.0 2.0 0.00 0.00 0.00 43 1006.4
20260509032437 54 151 0.0 2.0 0.00 0.00 0.00 43 1006.4
20260509032328 54 187 0.0 2.0 0.00 0.00 0.00 43 1006.5
20260509032240 54 187 0.0 2.0 0.00 0.00 0.00 42 1006.4
20260509032131 54 96 0.0 2.0 0.00 0.00 0.00 42 1006.4
20260509032037 54 95 0.0 2.0 0.00 0.00 0.00 42 1006.5
20260509031927 54 160 0.0 1.0 0.00 0.00 0.00 42 1006.5
20260509031839 54 199 0.0 1.0 0.00 0.00 0.00 42 1006.5
20260509031750 54 199 0.0 1.0 0.00 0.00 0.00 42 1006.5
20260509031639 54 270 0.0 1.0 0.00 0.00 0.00 42 1006.6
20260509031550 54 269 0.0 1.0 0.00 0.00 0.00 41 1006.6
20260509031501 54 271 0.0 1.0 0.00 0.00 0.00 41 1006.6
20260509031351 54 271 0.0 1.0 0.00 0.00 0.00 41 1006.6
20260509031241 54 158 0.0 1.0 0.00 0.00 0.00 41 1006.6
20260509031132 54 158 0.0 1.0 0.00 0.00 0.00 41 1006.5
20260509031038 54 158 0.0 1.0 0.00 0.00 0.00 41 1006.6
20260509030929 54 158 0.0 1.0 0.00 0.00 0.00 40 1006.6
20260509030842 54 156 0.0 1.0 0.00 0.00 0.00 40 1006.6
20260509030733 54 156 0.0 2.0 0.00 0.00 0.00 41 1006.6
20260509030643 54 156 0.0 3.0 0.00 0.00 0.00 40 1006.6
20260509030557 54 156 0.0 3.0 0.00 0.00 0.00 41 1006.6
20260509030506 54 124 0.0 3.0 0.00 0.00 0.00 40 1006.6
20260509030358 54 154 0.0 3.0 0.00 0.00 0.00 40 1006.6
20260509030309 54 176 0.0 3.0 0.00 0.00 0.00 40 1006.6
20260509030159 54 176 0.0 3.0 0.00 0.00 0.00 40 1006.6
20260509030043 54 176 0.0 3.0 0.00 0.00 0.00 40 1006.6
20260509025957 54 218 1.0 3.0 0.00 0.00 0.00 40 1006.6
20260509025908 54 218 1.0 3.0 0.00 0.00 0.00 40 1006.6
20260509025735 54 218 1.0 3.0 0.00 0.00 0.00 40 1006.6
20260509025647 54 210 1.0 3.0 0.00 0.00 0.00 40 1006.6
20260509025553 54 224 1.0 3.0 0.00 0.00 0.00 40 1006.6
20260509025442 54 229 1.0 3.0 0.00 0.00 0.00 40 1006.7
20260509025333 54 112 0.0 2.0 0.00 0.00 0.00 41 1006.7
20260509025228 54 112 0.0 2.0 0.00 0.00 0.00 40 1006.6
20260509025140 54 207 0.0 2.0 0.00 0.00 0.00 40 1006.7
20260509025027 54 207 0.0 2.0 0.00 0.00 0.00 40 1006.7
20260509024938 54 190 0.0 2.0 0.00 0.00 0.00 39 1006.7
20260509024829 54 190 0.0 2.0 0.00 0.00 0.00 39 1006.7
20260509024739 54 190 0.0 2.0 0.00 0.00 0.00 39 1006.7
20260509024650 54 190 0.0 2.0 0.00 0.00 0.00 39 1006.7
20260509024540 54 190 0.0 2.0 0.00 0.00 0.00 39 1006.8
20260509024431 54 190 0.0 2.0 0.00 0.00 0.00 39 1006.8
20260509024345 54 194 0.0 2.0 0.00 0.00 0.00 39 1006.8
20260509024258 54 160 0.0 2.0 0.00 0.00 0.00 38 1006.8
20260509024209 54 160 0.0 2.0 0.00 0.00 0.00 38 1006.9
20260509024059 54 160 0.0 2.0 0.00 0.00 0.00 38 1006.9
20260509023930 54 161 0.0 2.0 0.00 0.00 0.00 38 1006.9
20260509023842 54 161 0.0 2.0 0.00 0.00 0.00 38 1006.9
20260509023734 54 161 0.0 2.0 0.00 0.00 0.00 38 1006.9
20260509023625 54 161 0.0 2.0 0.00 0.00 0.00 38 1006.9
20260509023532 54 161 0.0 0.0 0.00 0.00 0.00 38 1006.9
20260509023427 54 214 0.0 0.0 0.00 0.00 0.00 38 1006.9
20260509023339 54 214 0.0 0.0 0.00 0.00 0.00 38 1006.9
20260509023251 54 214 0.0 0.0 0.00 0.00 0.00 37 1006.9
20260509023142 54 216 0.0 0.0 0.00 0.00 0.00 37 1007.0
20260509023028 54 216 0.0 0.0 0.00 0.00 0.00 37 1007.0
20260509022940 54 215 0.0 0.0 0.00 0.00 0.00 37 1007.0
20260509022832 54 215 0.0 0.0 0.00 0.00 0.00 37 1007.1
20260509022745 54 216 0.0 1.0 0.00 0.00 0.00 37 1007.0
20260509022656 54 216 0.0 1.0 0.00 0.00 0.00 37 1007.0
20260509022542 54 216 0.0 1.0 0.00 0.00 0.00 37 1007.0
20260509022438 54 216 0.0 1.0 0.00 0.00 0.00 36 1007.0
20260509022328 54 216 0.0 1.0 0.00 0.00 0.00 36 1007.0
20260509022240 54 216 0.0 1.0 0.00 0.00 0.00 36 1007.0
20260509022131 54 215 0.0 1.0 0.00 0.00 0.00 36 1007.0
20260509022038 54 210 0.0 1.0 0.00 0.00 0.00 36 1007.0
20260509021929 54 95 0.0 0.0 0.00 0.00 0.00 36 1007.0
20260509021840 54 95 0.0 0.0 0.00 0.00 0.00 36 1007.0
20260509021732 54 95 0.0 0.0 0.00 0.00 0.00 36 1007.1
20260509021643 54 96 0.0 0.0 0.00 0.00 0.00 36 1007.1
20260509021559 54 95 0.0 1.0 0.00 0.00 0.00 36 1007.1
20260509021447 54 95 0.0 1.0 0.00 0.00 0.00 35 1007.1
20260509021338 54 96 0.0 1.0 0.00 0.00 0.00 35 1007.0
20260509021227 54 96 0.0 1.0 0.00 0.00 0.00 36 1007.1
20260509021139 55 96 0.0 1.0 0.00 0.00 0.00 36 1007.1
20260509021046 55 96 0.0 1.0 0.00 0.00 0.00 35 1007.1
20260509020936 55 95 0.0 1.0 0.00 0.00 0.00 35 1007.1
20260509020827 55 95 0.0 1.0 0.00 0.00 0.00 35 1007.0
20260509020738 55 95 0.0 1.0 0.00 0.00 0.00 35 1007.1
20260509020627 55 96 0.0 2.0 0.00 0.00 0.00 35 1007.1
20260509020538 55 95 0.0 2.0 0.00 0.00 0.00 35 1007.0
20260509020428 55 95 0.0 2.0 0.00 0.00 0.00 35 1007.0
20260509020340 55 95 0.0 2.0 0.00 0.00 0.00 34 1007.0
20260509020231 55 95 0.0 2.0 0.00 0.00 0.00 35 1007.1
20260509020140 55 95 0.0 2.0 0.00 0.00 0.00 35 1007.0
20260509020054 55 95 0.0 2.0 0.00 0.00 0.00 34 1007.0
20260509020001 55 210 0.0 2.0 0.00 0.00 0.00 35 1006.9
20260509015831 55 210 1.0 2.0 0.00 0.00 0.00 34 1007.0
20260509015744 54 170 0.0 2.0 0.00 0.00 0.00 35 1006.9
20260509015639 55 229 0.0 1.0 0.00 0.00 0.00 34 1006.9
20260509015526 55 229 0.0 1.0 0.00 0.00 0.00 34 1006.9
20260509015438 55 229 0.0 1.0 0.00 0.00 0.00 34 1007.0
20260509015329 55 229 0.0 1.0 0.00 0.00 0.00 35 1006.9
20260509015240 55 229 0.0 1.0 0.00 0.00 0.00 35 1006.9
20260509015153 55 229 0.0 1.0 0.00 0.00 0.00 35 1006.9
20260509015058 55 229 0.0 1.0 0.00 0.00 0.00 34 1007.0
20260509014929 55 126 0.0 1.0 0.00 0.00 0.00 34 1006.9
20260509014840 55 125 0.0 1.0 0.00 0.00 0.00 34 1006.9
20260509014752 55 126 0.0 1.0 0.00 0.00 0.00 34 1006.9
20260509014645 55 129 0.0 1.0 0.00 0.00 0.00 34 1006.9
20260509014552 55 227 0.0 1.0 0.00 0.00 0.00 34 1006.9
20260509014442 55 226 0.0 1.0 0.00 0.00 0.00 34 1006.9
20260509014332 55 227 0.0 1.0 0.00 0.00 0.00 34 1006.9
20260509014242 55 227 0.0 1.0 0.00 0.00 0.00 34 1006.8
20260509014134 55 226 0.0 1.0 0.00 0.00 0.00 34 1006.9
20260509014040 55 227 0.0 1.0 0.00 0.00 0.00 34 1006.9
20260509013931 55 227 0.0 1.0 0.00 0.00 0.00 33 1006.9
20260509013843 55 226 0.0 1.0 0.00 0.00 0.00 34 1006.8
20260509013735 55 227 0.0 1.0 0.00 0.00 0.00 33 1006.8
20260509013650 55 226 0.0 1.0 0.00 0.00 0.00 33 1006.8
20260509013557 55 227 0.0 2.0 0.00 0.00 0.00 33 1006.8
20260509013448 55 227 0.0 2.0 0.00 0.00 0.00 33 1006.9
20260509013338 55 226 0.0 2.0 0.00 0.00 0.00 33 1006.9
20260509013229 55 227 0.0 2.0 0.00 0.00 0.00 32 1006.9
20260509013141 55 227 0.0 2.0 0.00 0.00 0.00 32 1006.9
20260509013028 55 227 0.0 2.0 0.00 0.00 0.00 32 1007.0
20260509012939 55 227 0.0 2.0 0.00 0.00 0.00 32 1006.9
20260509012830 56 227 0.0 2.0 0.00 0.00 0.00 32 1006.9
20260509012740 56 227 0.0 2.0 0.00 0.00 0.00 33 1006.9
20260509012658 56 221 0.0 1.0 0.00 0.00 0.00 32 1006.9
20260509012609 56 221 0.0 1.0 0.00 0.00 0.00 31 1006.8
20260509012516 56 221 0.0 1.0 0.00 0.00 0.00 32 1006.9
20260509012406 56 221 0.0 1.0 0.00 0.00 0.00 31 1006.9
20260509012317 56 221 0.0 1.0 0.00 0.00 0.00 31 1006.9
20260509012229 56 221 0.0 1.0 0.00 0.00 0.00 31 1006.9
20260509012120 56 221 0.0 1.0 0.00 0.00 0.00 31 1006.9
20260509012027 56 221 0.0 1.0 0.00 0.00 0.00 31 1006.8
20260509011827 56 248 0.0 1.0 0.00 0.00 0.00 30 1006.8
20260509011739 56 249 0.0 1.0 0.00 0.00 0.00 30 1006.8
20260509011630 56 249 0.0 1.0 0.00 0.00 0.00 30 1006.8
20260509011541 57 249 0.0 1.0 0.00 0.00 0.00 29 1006.8
20260509011432 57 271 0.0 1.0 0.00 0.00 0.00 30 1006.8
20260509011343 57 271 0.0 1.0 0.00 0.00 0.00 30 1006.9
20260509011256 57 271 0.0 1.0 0.00 0.00 0.00 29 1006.9
20260509011206 57 271 0.0 1.0 0.00 0.00 0.00 29 1006.8
20260509011057 57 271 0.0 1.0 0.00 0.00 0.00 29 1006.8
20260509011003 57 271 0.0 1.0 0.00 0.00 0.00 29 1006.8
20260509010853 57 271 0.0 2.0 0.00 0.00 0.00 28 1006.8
20260509010744 57 218 0.0 2.0 0.00 0.00 0.00 28 1006.9
20260509010655 57 218 0.0 2.0 0.00 0.00 0.00 28 1006.8
20260509010541 57 218 0.0 2.0 0.00 0.00 0.00 28 1006.8
20260509010435 58 218 0.0 2.0 0.00 0.00 0.00 28 1006.8
20260509010327 58 218 0.0 3.0 0.00 0.00 0.00 27 1006.8
20260509010238 58 218 0.0 3.0 0.00 0.00 0.00 28 1006.9
20260509010129 58 218 0.0 3.0 0.00 0.00 0.00 28 1006.9
20260509010035 58 218 1.0 3.0 0.00 0.00 0.00 27 1006.8
20260509005927 58 193 1.0 3.0 0.00 0.00 0.00 27 1006.8
20260509005838 58 174 1.0 3.0 0.00 0.00 0.00 27 1006.8
20260509005727 58 198 0.0 3.0 0.00 0.00 0.00 27 1006.9
20260509005639 58 205 1.0 3.0 0.00 0.00 0.00 27 1006.8
20260509005549 58 195 1.0 3.0 0.00 0.00 0.00 27 1006.8
20260509005439 58 234 0.0 2.0 0.00 0.00 0.00 27 1006.9
20260509005350 58 186 0.0 1.0 0.00 0.00 0.00 27 1006.9
20260509005239 58 186 0.0 2.0 0.00 0.00 0.00 26 1006.8
20260509005131 58 186 1.0 2.0 0.00 0.00 0.00 26 1006.8
20260509005038 58 217 0.0 2.0 0.00 0.00 0.00 25 1006.8
20260509004948 59 255 0.0 2.0 0.00 0.00 0.00 26 1006.8
20260509004900 59 257 0.0 2.0 0.00 0.00 0.00 26 1006.8
20260509004750 59 257 0.0 2.0 0.00 0.00 0.00 26 1006.8
20260509004702 59 257 0.0 2.0 0.00 0.00 0.00 26 1006.8
20260509004527 59 257 0.0 2.0 0.00 0.00 0.00 25 1006.8
20260509004441 59 157 1.0 2.0 0.00 0.00 0.00 25 1006.8
20260509004353 59 158 1.0 2.0 0.00 0.00 0.00 25 1006.8
20260509004242 59 51 0.0 2.0 0.00 0.00 0.00 25 1006.8
20260509004133 59 51 0.0 4.0 0.00 0.00 0.00 24 1006.8
20260509004039 59 51 0.0 4.0 0.00 0.00 0.00 25 1006.7
20260509003931 59 51 1.0 4.0 0.00 0.00 0.00 24 1006.8
20260509003841 59 51 1.0 4.0 0.00 0.00 0.00 24 1006.7
20260509003753 59 231 0.0 4.0 0.00 0.00 0.00 24 1006.7
20260509003643 59 236 0.0 4.0 0.00 0.00 0.00 24 1006.7
20260509003529 60 236 1.0 4.0 0.00 0.00 0.00 24 1006.7
20260509003425 60 155 1.0 4.0 0.00 0.00 0.00 23 1006.8
20260509003336 60 228 0.0 4.0 0.00 0.00 0.00 23 1006.7
20260509003226 60 99 0.0 3.0 0.00 0.00 0.00 23 1006.8
20260509003138 60 99 1.0 3.0 0.00 0.00 0.00 23 1006.8
20260509003044 60 99 1.0 3.0 0.00 0.00 0.00 23 1006.8
20260509002956 60 188 1.0 3.0 0.00 0.00 0.00 24 1006.8
20260509002825 60 232 1.0 3.0 0.00 0.00 0.00 23 1006.8
20260509002738 60 229 1.0 3.0 0.00 0.00 0.00 23 1006.8
20260509002629 60 220 2.0 3.0 0.00 0.00 0.00 23 1006.8
20260509002538 60 211 1.0 4.0 0.00 0.00 0.00 23 1006.8
20260509002452 60 215 0.0 4.0 0.00 0.00 0.00 23 1006.8
20260509002402 60 307 0.0 4.0 0.00 0.00 0.00 23 1006.8
20260509002232 60 307 0.0 4.0 0.00 0.00 0.00 23 1006.8
20260509002143 60 290 0.0 4.0 0.00 0.00 0.00 23 1006.8
20260509002057 60 222 0.0 4.0 0.00 0.00 0.00 22 1006.8
20260509002001 60 222 1.0 4.0 0.00 0.00 0.00 22 1006.8
20260509001832 60 222 2.0 4.0 0.00 0.00 0.00 22 1006.8
20260509001744 60 233 1.0 4.0 0.00 0.00 0.00 22 1006.8
20260509001634 60 139 1.0 4.0 0.00 0.00 0.00 22 1006.9
20260509001525 60 213 1.0 4.0 0.00 0.00 0.00 22 1006.8
20260509001436 60 270 1.0 4.0 0.00 0.00 0.00 23 1006.9
20260509001327 61 239 1.0 4.0 0.00 0.00 0.00 23 1006.8
20260509001239 61 210 1.0 4.0 0.00 0.00 0.00 23 1006.9
20260509001152 61 210 2.0 4.0 0.00 0.00 0.00 22 1006.9
20260509001057 61 238 1.0 4.0 0.00 0.00 0.00 22 1007.0
20260509000926 61 188 1.0 4.0 0.00 0.00 0.00 22 1006.8
20260509000838 61 217 2.0 4.0 0.00 0.00 0.00 22 1007.0
20260509000748 61 210 1.0 4.0 0.00 0.00 0.00 22 1006.9
20260509000700 61 229 1.0 4.0 0.00 0.00 0.00 22 1006.9
20260509000554 61 186 1.0 4.0 0.00 0.00 0.00 21 1006.9
20260509000500 61 186 1.0 4.0 0.00 0.00 0.00 22 1006.9
20260509000412 61 214 2.0 4.0 0.00 0.00 0.00 22 1006.9
20260509000322 61 176 2.0 4.0 0.00 0.00 0.00 21 1007.0
20260509000234 61 217 1.0 4.0 0.00 0.00 0.00 22 1006.9
20260509000124 61 233 1.0 2.0 0.00 0.00 0.00 21 1007.0
20260509000030 61 127 1.0 2.0 0.00 0.00 0.00 22 1007.0
20260508235921 61 219 0.0 2.0 0.00 0.00 0.00 22 1007.0
20260508235811 61 247 0.0 2.0 0.00 0.00 0.00 21 1007.0
20260508235723 61 250 1.0 2.0 0.00 0.00 0.00 21 1007.0
20260508235545 61 250 1.0 2.0 0.00 0.00 0.00 21 1007.0
20260508235455 61 143 0.0 2.0 0.00 0.00 0.00 21 1007.1
20260508235329 61 97 0.0 2.0 0.00 0.00 0.00 21 1007.1
20260508235239 61 80 1.0 2.0 0.00 0.00 0.00 21 1007.1
20260508235131 61 230 1.0 2.0 0.00 0.00 0.00 21 1007.1
20260508235038 61 193 1.0 2.0 0.00 0.00 0.00 21 1007.1
20260508234929 61 143 1.0 3.0 0.00 0.00 0.00 20 1007.1
20260508234841 61 89 1.0 4.0 0.00 0.00 0.00 20 1007.1
20260508234752 61 161 0.0 4.0 0.00 0.00 0.00 21 1007.2
20260508234643 61 161 0.0 4.0 0.00 0.00 0.00 21 1007.2
20260508234529 61 172 0.0 4.0 0.00 0.00 0.00 21 1007.2
20260508234441 61 110 1.0 4.0 0.00 0.00 0.00 21 1007.2
20260508234355 61 195 1.0 4.0 0.00 0.00 0.00 21 1007.2
20260508234226 61 231 1.0 4.0 0.00 0.00 0.00 20 1007.3
20260508234138 61 235 2.0 4.0 0.00 0.00 0.00 20 1007.3
20260508234043 61 210 2.0 4.0 0.00 0.00 0.00 20 1007.3
20260508233934 61 204 2.0 4.0 0.00 0.00 0.00 20 1007.4
20260508233844 61 178 2.0 4.0 0.00 0.00 0.00 20 1007.4
20260508233758 61 221 2.0 4.0 0.00 0.00 0.00 20 1007.4
20260508233709 61 214 1.0 4.0 0.00 0.00 0.00 21 1007.4
20260508233600 61 198 2.0 4.0 0.00 0.00 0.00 21 1007.5
20260508233429 61 213 3.0 4.0 0.00 0.00 0.00 20 1007.4
20260508233344 61 220 2.0 4.0 0.00 0.00 0.00 20 1007.5
20260508233235 61 207 2.0 4.0 0.00 0.00 0.00 21 1007.5
20260508233128 61 186 2.0 4.0 0.00 0.00 0.00 20 1007.6
20260508233034 61 243 1.0 4.0 0.00 0.00 0.00 21 1007.6
20260508232947 61 164 1.0 4.0 0.00 0.00 0.00 20 1007.6
20260508232837 61 191 1.0 4.0 0.00 0.00 0.00 20 1007.6
20260508232729 61 203 1.0 4.0 0.00 0.00 0.00 21 1007.6
20260508232640 61 224 0.0 1.0 0.00 0.00 0.00 21 1007.6
20260508232526 61 248 0.0 2.0 0.00 0.00 0.00 21 1007.7
20260508232443 61 248 0.0 2.0 0.00 0.00 0.00 21 1007.7
20260508232334 61 248 0.0 2.0 0.00 0.00 0.00 20 1007.7
20260508232224 61 216 0.0 2.0 0.00 0.00 0.00 21 1007.7
20260508232136 61 236 0.0 2.0 0.00 0.00 0.00 20 1007.8
20260508232042 61 246 0.0 2.0 0.00 0.00 0.00 20 1007.8
20260508231932 61 246 0.0 4.0 0.00 0.00 0.00 20 1007.8
20260508231844 61 240 0.0 4.0 0.00 0.00 0.00 21 1007.8
20260508231755 61 240 0.0 4.0 0.00 0.00 0.00 21 1007.8
20260508231645 61 224 0.0 4.0 0.00 0.00 0.00 21 1007.8
20260508231530 61 255 0.0 4.0 0.00 0.00 0.00 20 1007.8
20260508231444 61 255 1.0 5.0 0.00 0.00 0.00 20 1007.9
20260508231356 61 234 1.0 5.0 0.00 0.00 0.00 22 1007.9
20260508231246 61 218 2.0 5.0 0.00 0.00 0.00 21 1007.8
20260508231136 61 227 2.0 5.0 0.00 0.00 0.00 20 1007.8
20260508231042 61 181 2.0 5.0 0.00 0.00 0.00 21 1007.9
20260508230932 61 152 1.0 5.0 0.00 0.00 0.00 20 1007.8
20260508230843 61 231 1.0 5.0 0.00 0.00 0.00 20 1007.8
20260508230734 61 180 2.0 5.0 0.00 0.00 0.00 20 1007.9
20260508230625 61 191 2.0 6.0 0.00 0.00 0.00 21 1007.8
20260508230531 61 176 2.0 6.0 0.00 0.00 0.00 21 1007.8
20260508230426 61 207 2.0 6.0 0.00 0.00 0.00 20 1007.9
20260508230337 61 241 2.0 6.0 0.00 0.00 0.00 20 1007.8
20260508230226 61 238 1.0 6.0 0.00 0.00 0.00 21 1007.9
20260508230138 61 184 1.0 6.0 0.00 0.00 0.00 21 1007.9
20260508230044 61 212 1.0 7.0 0.00 0.00 0.00 22 1007.9
20260508225956 61 203 3.0 7.0 0.00 0.00 0.00 21 1007.9
20260508225845 61 200 4.0 7.0 0.00 0.00 0.00 21 1007.9
20260508225735 61 213 3.0 7.0 0.00 0.00 0.00 21 1007.9
20260508225625 61 218 3.0 7.0 0.00 0.00 0.00 21 1007.9
20260508225530 62 267 2.0 7.0 0.00 0.00 0.00 22 1007.9
20260508225425 61 172 1.0 7.0 0.00 0.00 0.00 22 1008.0
20260508225337 62 259 2.0 7.0 0.00 0.00 0.00 22 1008.0
20260508225227 62 136 3.0 7.0 0.00 0.00 0.00 22 1008.0
20260508225139 62 236 3.0 7.0 0.00 0.00 0.00 22 1007.9
20260508225025 62 187 3.0 6.0 0.00 0.00 0.00 22 1008.0
20260508224938 62 193 2.0 6.0 0.00 0.00 0.00 22 1008.0
20260508224849 62 158 1.0 6.0 0.00 0.00 0.00 22 1008.0
20260508224800 62 259 1.0 6.0 0.00 0.00 0.00 22 1008.0
20260508224652 62 259 1.0 6.0 0.00 0.00 0.00 22 1008.0
20260508224556 62 248 0.0 6.0 0.00 0.00 0.00 22 1008.0
20260508224450 62 223 2.0 6.0 0.00 0.00 0.00 22 1008.0
20260508224340 62 226 2.0 8.0 0.00 0.00 0.00 22 1008.0
20260508224232 62 232 3.0 8.0 0.00 0.00 0.00 22 1008.0
20260508224124 62 211 2.0 8.0 0.00 0.00 0.00 21 1007.9
20260508224030 62 238 1.0 8.0 0.00 0.00 0.00 22 1008.0
20260508223942 62 170 1.0 8.0 0.00 0.00 0.00 22 1007.9
20260508223834 62 197 1.0 8.0 0.00 0.00 0.00 22 1007.9
20260508223725 62 219 1.0 8.0 0.00 0.00 0.00 21 1007.9
20260508223636 62 243 2.0 8.0 0.00 0.00 0.00 21 1008.0
20260508223527 62 202 3.0 8.0 0.00 0.00 0.00 21 1008.0
20260508223438 62 236 2.0 6.0 0.00 0.00 0.00 21 1008.0
20260508223348 62 228 1.0 6.0 0.00 0.00 0.00 22 1008.0
20260508223259 63 217 1.0 6.0 0.00 0.00 0.00 22 1008.0
20260508223129 63 214 3.0 6.0 0.00 0.00 0.00 21 1008.0
20260508223036 63 241 3.0 6.0 0.00 0.00 0.00 21 1008.1
20260508222948 63 207 2.0 6.0 0.00 0.00 0.00 21 1007.9
20260508222859 63 241 2.0 5.0 0.00 0.00 0.00 21 1008.0
20260508222729 63 238 1.0 7.0 0.00 0.00 0.00 22 1008.1
20260508222639 63 279 1.0 7.0 0.00 0.00 0.00 21 1008.0
20260508222557 63 231 1.0 7.0 0.00 0.00 0.00 22 1008.0
20260508222504 63 102 2.0 7.0 0.00 0.00 0.00 21 1008.1
20260508222333 63 253 2.0 7.0 0.00 0.00 0.00 21 1008.1
20260508222225 63 226 1.0 7.0 0.00 0.00 0.00 21 1008.0
20260508222136 63 255 1.0 7.0 0.00 0.00 0.00 22 1008.0
20260508222042 63 311 1.0 7.0 0.00 0.00 0.00 22 1008.0
20260508221952 63 238 2.0 7.0 0.00 0.00 0.00 21 1008.1
20260508221842 63 202 3.0 7.0 0.00 0.00 0.00 20 1008.1
20260508221732 63 250 2.0 5.0 0.00 0.00 0.00 21 1008.1
20260508221626 64 268 2.0 5.0 0.00 0.00 0.00 21 1008.1
20260508221532 64 248 2.0 6.0 0.00 0.00 0.00 21 1008.2
20260508221444 64 243 2.0 6.0 0.00 0.00 0.00 21 1008.2
20260508221336 64 258 2.0 6.0 0.00 0.00 0.00 21 1008.1
20260508221226 64 213 2.0 6.0 0.00 0.00 0.00 22 1008.1
20260508221137 64 255 2.0 6.0 0.00 0.00 0.00 21 1008.2
20260508220928 64 257 2.0 6.0 0.00 0.00 0.00 21 1008.2
20260508220838 64 281 3.0 6.0 0.00 0.00 0.00 22 1008.2
20260508220749 64 193 4.0 6.0 0.00 0.00 0.00 21 1008.3
20260508220638 65 252 3.0 6.0 0.00 0.00 0.00 22 1008.2
20260508220528 65 229 2.0 6.0 0.00 0.00 0.00 22 1008.2
20260508220439 65 216 2.0 6.0 0.00 0.00 0.00 22 1008.3
20260508220353 65 223 2.0 6.0 0.00 0.00 0.00 22 1008.3
20260508220244 65 271 2.0 6.0 0.00 0.00 0.00 21 1008.2
20260508220154 65 290 2.0 6.0 0.00 0.00 0.00 21 1008.3
20260508220038 65 335 1.0 6.0 0.00 0.00 0.00 22 1008.3
20260508215953 65 203 1.0 6.0 0.00 0.00 0.00 23 1008.3
20260508215903 65 199 2.0 6.0 0.00 0.00 0.00 22 1008.2
20260508215732 65 301 1.0 5.0 0.00 0.00 0.00 23 1008.2
20260508215624 65 226 1.0 7.0 0.00 0.00 0.00 23 1008.3
20260508215529 65 139 1.0 7.0 0.00 0.00 0.00 23 1008.3
20260508215445 65 180 1.0 7.0 0.00 0.00 0.00 23 1008.3
20260508215335 65 279 2.0 7.0 0.00 0.00 0.00 22 1008.2
20260508215246 65 310 1.0 7.0 0.00 0.00 0.00 22 1008.3
20260508215157 65 255 2.0 7.0 0.00 0.00 0.00 22 1008.3
20260508215043 65 283 2.0 7.0 0.00 0.00 0.00 22 1008.2
20260508214933 65 297 3.0 7.0 0.00 0.00 0.00 22 1008.3
20260508214844 65 116 3.0 7.0 0.00 0.00 0.00 21 1008.2
20260508214755 65 203 2.0 6.0 0.00 0.00 0.00 22 1008.2
20260508214646 65 205 2.0 6.0 0.00 0.00 0.00 22 1008.3
20260508214553 65 224 2.0 6.0 0.00 0.00 0.00 22 1008.3
20260508214444 65 285 2.0 6.0 0.00 0.00 0.00 22 1008.2
20260508214339 65 68 1.0 6.0 0.00 0.00 0.00 22 1008.2
20260508214230 65 285 2.0 6.0 0.00 0.00 0.00 23 1008.3
20260508214140 65 291 3.0 6.0 0.00 0.00 0.00 23 1008.2
20260508214054 65 205 3.0 6.0 0.00 0.00 0.00 22 1008.2
20260508213959 66 230 2.0 6.0 0.00 0.00 0.00 23 1008.2
20260508213829 65 173 2.0 6.0 0.00 0.00 0.00 23 1008.3
20260508213739 65 258 1.0 6.0 0.00 0.00 0.00 23 1008.3
20260508213652 65 139 0.0 6.0 0.00 0.00 0.00 23 1008.3
20260508213602 65 267 2.0 6.0 0.00 0.00 0.00 23 1008.2
20260508213432 65 207 2.0 6.0 0.00 0.00 0.00 23 1008.3
20260508213326 65 229 2.0 5.0 0.00 0.00 0.00 23 1008.3
20260508213236 65 250 2.0 5.0 0.00 0.00 0.00 23 1008.2
20260508213148 65 233 3.0 5.0 0.00 0.00 0.00 22 1008.2
20260508213054 65 223 2.0 5.0 0.00 0.00 0.00 23 1008.3
20260508212944 65 140 1.0 5.0 0.00 0.00 0.00 23 1008.3
20260508212835 65 308 2.0 8.0 0.00 0.00 0.00 22 1008.3
20260508212746 65 330 2.0 8.0 0.00 0.00 0.00 22 1008.3
20260508212636 65 303 2.0 8.0 0.00 0.00 0.00 23 1008.4
20260508212543 65 349 2.0 8.0 0.00 0.00 0.00 22 1008.4
20260508212434 65 26 1.0 8.0 0.00 0.00 0.00 22 1008.5
20260508212348 65 321 1.0 8.0 0.00 0.00 0.00 23 1008.4
20260508212301 64 234 1.0 8.0 0.00 0.00 0.00 23 1008.4
20260508212213 64 260 2.0 8.0 0.00 0.00 0.00 22 1008.4
20260508212042 65 232 3.0 8.0 0.00 0.00 0.00 22 1008.4
20260508211933 65 295 3.0 7.0 0.00 0.00 0.00 21 1008.5
20260508211844 65 241 2.0 7.0 0.00 0.00 0.00 21 1008.5
20260508211735 65 160 2.0 7.0 0.00 0.00 0.00 22 1008.5
20260508211626 65 225 2.0 7.0 0.00 0.00 0.00 23 1008.5
20260508211532 65 209 2.0 7.0 0.00 0.00 0.00 23 1008.5
20260508211427 65 245 1.0 6.0 0.00 0.00 0.00 22 1008.5
20260508211337 65 319 2.0 6.0 0.00 0.00 0.00 22 1008.5
20260508211229 65 233 3.0 6.0 0.00 0.00 0.00 21 1008.5
20260508211140 65 262 2.0 6.0 0.00 0.00 0.00 21 1008.5
20260508211027 65 158 3.0 6.0 0.00 0.00 0.00 21 1008.5
20260508210937 65 212 3.0 6.0 0.00 0.00 0.00 22 1008.5
20260508210827 65 180 3.0 6.0 0.00 0.00 0.00 22 1008.5
20260508210739 65 169 3.0 7.0 0.00 0.00 0.00 22 1008.5
20260508210630 65 139 3.0 7.0 0.00 0.00 0.00 22 1008.5
20260508210539 65 211 3.0 7.0 0.00 0.00 0.00 22 1008.5
20260508210430 65 220 3.0 7.0 0.00 0.00 0.00 23 1008.5
20260508210340 65 146 2.0 7.0 0.00 0.00 0.00 23 1008.5
20260508210254 65 238 2.0 7.0 0.00 0.00 0.00 23 1008.5
20260508210206 65 193 2.0 7.0 0.00 0.00 0.00 23 1008.5
20260508210118 65 262 3.0 7.0 0.00 0.00 0.00 22 1008.5
20260508210002 65 197 4.0 7.0 0.00 0.00 0.00 21 1008.5
20260508205913 65 124 4.0 7.0 0.00 0.00 0.00 22 1008.6
20260508205802 65 217 3.0 8.0 0.00 0.00 0.00 23 1008.6
20260508205654 65 213 2.0 8.0 0.00 0.00 0.00 23 1008.6
20260508205604 65 156 3.0 8.0 0.00 0.00 0.00 23 1008.6
20260508205438 65 117 2.0 8.0 0.00 0.00 0.00 23 1008.6
20260508205352 65 180 1.0 8.0 0.00 0.00 0.00 23 1008.6
20260508205305 65 298 1.0 8.0 0.00 0.00 0.00 23 1008.6
20260508205215 65 306 1.0 8.0 0.00 0.00 0.00 23 1008.7
20260508205125 65 309 2.0 8.0 0.00 0.00 0.00 23 1008.6
20260508204927 65 163 5.0 8.0 0.00 0.00 0.00 23 1008.7
20260508204838 65 203 3.0 8.0 0.00 0.00 0.00 23 1008.6
20260508204729 65 249 2.0 7.0 0.00 0.00 0.00 23 1008.7
20260508204640 65 241 3.0 7.0 0.00 0.00 0.00 23 1008.6
20260508204525 65 198 3.0 7.0 0.00 0.00 0.00 23 1008.6
20260508204439 65 188 3.0 7.0 0.00 0.00 0.00 23 1008.7
20260508204350 65 230 2.0 7.0 0.00 0.00 0.00 23 1008.7
20260508204240 65 233 3.0 7.0 0.00 0.00 0.00 23 1008.7
20260508204151 65 283 3.0 7.0 0.00 0.00 0.00 23 1008.7
20260508204038 65 188 2.0 8.0 0.00 0.00 0.00 23 1008.7
20260508203949 65 219 2.0 8.0 0.00 0.00 0.00 24 1008.7
20260508203901 65 214 4.0 8.0 0.00 0.00 0.00 24 1008.7
20260508203751 65 229 2.0 8.0 0.00 0.00 0.00 24 1008.7
20260508203642 65 245 1.0 8.0 0.00 0.00 0.00 24 1008.7
20260508203528 65 229 2.0 8.0 0.00 0.00 0.00 24 1008.8
20260508203440 65 211 4.0 8.0 0.00 0.00 0.00 23 1008.8
20260508203336 65 219 4.0 8.0 0.00 0.00 0.00 23 1008.9
20260508203249 65 229 4.0 8.0 0.00 0.00 0.00 23 1008.9
20260508203200 65 163 3.0 5.0 0.00 0.00 0.00 23 1008.8
20260508203025 66 289 2.0 4.0 0.00 0.00 0.00 23 1008.9
20260508202936 66 238 1.0 7.0 0.00 0.00 0.00 24 1008.8
20260508202827 66 200 2.0 7.0 0.00 0.00 0.00 23 1008.8
20260508202737 66 283 2.0 7.0 0.00 0.00 0.00 24 1008.9
20260508202647 66 302 1.0 10.0 0.00 0.00 0.00 24 1008.9
20260508202558 65 297 1.0 10.0 0.00 0.00 0.00 23 1008.9
20260508202506 65 286 1.0 10.0 0.00 0.00 0.00 25 1009.0
20260508202355 65 143 1.0 10.0 0.00 0.00 0.00 24 1008.9
20260508202229 65 308 3.0 10.0 0.00 0.00 0.00 26 1009.0
20260508202141 65 215 4.0 10.0 0.00 0.00 0.00 25 1008.9
20260508202048 65 179 5.0 10.0 0.00 0.00 0.00 25 1008.9
20260508201958 65 191 5.0 10.0 0.00 0.00 0.00 25 1008.9
20260508201829 65 212 4.0 10.0 0.00 0.00 0.00 25 1008.9
20260508201740 65 171 4.0 10.0 0.00 0.00 0.00 23 1009.0
20260508201651 65 130 4.0 10.0 0.00 0.00 0.00 23 1008.9
20260508201536 65 212 4.0 10.0 0.00 0.00 0.00 24 1009.0
20260508201427 65 229 5.0 10.0 0.00 0.00 0.00 23 1008.9
20260508201339 65 240 4.0 10.0 0.00 0.00 0.00 23 1008.9
20260508201233 65 163 3.0 9.0 0.00 0.00 0.00 24 1009.0
20260508201145 65 194 3.0 9.0 0.00 0.00 0.00 24 1008.9
20260508201058 65 194 3.0 9.0 0.00 0.00 0.00 23 1008.9
20260508201003 65 205 1.0 7.0 0.00 0.00 0.00 23 1009.0
20260508200833 65 240 1.0 9.0 0.00 0.00 0.00 25 1009.0
20260508200724 65 264 1.0 10.0 0.00 0.00 0.00 24 1009.1
20260508200635 64 312 1.0 10.0 0.00 0.00 0.00 24 1009.1
20260508200542 64 287 1.0 10.0 0.00 0.00 0.00 25 1009.1
20260508200433 64 262 2.0 10.0 0.00 0.00 0.00 24 1009.1
20260508200349 64 353 2.0 10.0 0.00 0.00 0.00 24 1009.1
20260508200300 64 347 2.0 10.0 0.00 0.00 0.00 26 1009.1
20260508200130 64 232 4.0 10.0 0.00 0.00 0.00 25 1009.1
20260508200036 65 230 4.0 10.0 0.00 0.00 0.00 24 1009.2
20260508195946 65 196 3.0 6.0 0.00 0.00 0.00 24 1009.1
20260508195835 65 281 2.0 6.0 0.00 0.00 0.00 24 1009.1
20260508195727 65 294 2.0 6.0 0.00 0.00 0.00 25 1009.2
20260508195638 65 236 2.0 8.0 0.00 0.00 0.00 26 1009.1
20260508195543 65 313 1.0 8.0 0.00 0.00 0.00 26 1009.1
20260508195430 65 314 1.0 8.0 0.00 0.00 0.00 25 1009.2
20260508195325 65 31 1.0 8.0 0.00 0.00 0.00 25 1009.2
20260508195236 64 316 2.0 8.0 0.00 0.00 0.00 26 1009.2
20260508195147 64 314 3.0 8.0 0.00 0.00 0.00 25 1009.2
20260508195100 64 309 3.0 8.0 0.00 0.00 0.00 25 1009.2
20260508194944 64 228 4.0 8.0 0.00 0.00 0.00 27 1009.3
20260508194856 64 213 4.0 8.0 0.00 0.00 0.00 26 1009.3
20260508194726 64 218 5.0 8.0 0.00 0.00 0.00 26 1009.4
20260508194637 65 143 4.0 7.0 0.00 0.00 0.00 25 1009.2
20260508194543 65 155 3.0 7.0 0.00 0.00 0.00 26 1009.4
20260508194434 65 296 3.0 7.0 0.00 0.00 0.00 27 1009.4
20260508194349 65 203 4.0 7.0 0.00 0.00 0.00 27 1009.4
20260508194239 65 221 3.0 7.0 0.00 0.00 0.00 27 1009.4
20260508194150 65 230 4.0 8.0 0.00 0.00 0.00 27 1009.4
20260508194057 65 225 3.0 8.0 0.00 0.00 0.00 27 1009.4
20260508193945 65 209 3.0 8.0 0.00 0.00 0.00 27 1009.4
20260508193859 65 224 4.0 8.0 0.00 0.00 0.00 27 1009.4
20260508193810 66 238 2.0 8.0 0.00 0.00 0.00 27 1009.4
20260508193700 65 226 1.0 8.0 0.00 0.00 0.00 28 1009.4
20260508193525 65 292 2.0 8.0 0.00 0.00 0.00 27 1009.4
20260508193435 65 252 2.0 8.0 0.00 0.00 0.00 29 1009.5
20260508193348 65 242 3.0 8.0 0.00 0.00 0.00 28 1009.5
20260508193258 65 238 3.0 8.0 0.00 0.00 0.00 28 1009.6
20260508193131 66 290 2.0 5.0 0.00 0.00 0.00 27 1009.6
20260508193037 66 291 2.0 5.0 0.00 0.00 0.00 26 1009.5
20260508192947 66 288 2.0 6.0 0.00 0.00 0.00 27 1009.6
20260508192858 66 308 2.0 6.0 0.00 0.00 0.00 27 1009.5
20260508192727 66 301 1.0 8.0 0.00 0.00 0.00 28 1009.5
20260508192638 66 266 1.0 8.0 0.00 0.00 0.00 28 1009.5
20260508192543 66 284 1.0 8.0 0.00 0.00 0.00 29 1009.5
20260508192435 65 281 2.0 8.0 0.00 0.00 0.00 28 1009.5
20260508192327 65 143 1.0 8.0 0.00 0.00 0.00 28 1009.5
20260508192241 65 200 1.0 8.0 0.00 0.00 0.00 28 1009.6
20260508192154 65 212 2.0 8.0 0.00 0.00 0.00 27 1009.6
20260508192105 65 259 2.0 8.0 0.00 0.00 0.00 27 1009.6
20260508191956 65 215 2.0 8.0 0.00 0.00 0.00 29 1009.6
20260508191826 65 170 1.0 6.0 0.00 0.00 0.00 26 1009.6
20260508191538 64 13 2.0 6.0 0.00 0.00 0.00 26 1009.7
20260508191428 64 302 1.0 6.0 0.00 0.00 0.00 26 1009.8
20260508191340 64 290 2.0 6.0 0.00 0.00 0.00 26 1009.8
20260508191230 64 243 2.0 6.0 0.00 0.00 0.00 25 1009.7
20260508191124 65 288 3.0 6.0 0.00 0.00 0.00 24 1009.8
20260508191029 65 221 2.0 6.0 0.00 0.00 0.00 28 1009.7
20260508190941 65 210 2.0 6.0 0.00 0.00 0.00 28 1009.7
20260508190832 64 237 1.0 6.0 0.00 0.00 0.00 25 1009.7
20260508190744 64 323 1.0 6.0 0.00 0.00 0.00 23 1009.7
20260508190635 64 351 1.0 6.0 0.00 0.00 0.00 25 1009.7
20260508190540 64 318 1.0 7.0 0.00 0.00 0.00 25 1009.8
20260508190431 65 2 2.0 7.0 0.00 0.00 0.00 25 1009.8
20260508190344 65 349 1.0 7.0 0.00 0.00 0.00 25 1009.8
20260508190237 65 338 2.0 7.0 0.00 0.00 0.00 25 1009.8
20260508190151 65 286 2.0 7.0 0.00 0.00 0.00 23 1009.8
20260508185930 65 137 2.0 7.0 0.00 0.00 0.00 24 1009.8
20260508185730 65 182 4.0 7.0 0.00 0.00 0.00 23 1009.8
20260508185642 65 203 3.0 6.0 0.00 0.00 0.00 23 1009.8
20260508185555 66 194 2.0 4.0 0.00 0.00 0.00 23 1009.8
20260508185439 66 304 2.0 6.0 0.00 0.00 0.00 25 1009.8
20260508185351 66 183 2.0 6.0 0.00 0.00 0.00 24 1009.8
20260508185240 66 316 2.0 6.0 0.00 0.00 0.00 26 1009.9
20260508185131 66 262 1.0 6.0 0.00 0.00 0.00 25 1009.8
20260508185041 65 349 1.0 6.0 0.00 0.00 0.00 27 1009.8
20260508184932 65 351 1.0 6.0 0.00 0.00 0.00 27 1009.8
20260508184844 65 214 1.0 6.0 0.00 0.00 0.00 26 1009.8
20260508184734 64 247 2.0 6.0 0.00 0.00 0.00 26 1009.9
20260508184626 64 236 2.0 6.0 0.00 0.00 0.00 26 1009.9
20260508184532 64 95 2.0 6.0 0.00 0.00 0.00 25 1009.9
20260508184444 64 302 2.0 6.0 0.00 0.00 0.00 23 1009.9
20260508184333 64 295 2.0 6.0 0.00 0.00 0.00 23 1009.8
20260508184225 65 340 3.0 6.0 0.00 0.00 0.00 23 1009.9
20260508184140 65 265 3.0 6.0 0.00 0.00 0.00 23 1009.9
20260508184026 65 290 2.0 6.0 0.00 0.00 0.00 22 1009.8
20260508183937 65 289 1.0 5.0 0.00 0.00 0.00 24 1009.9
20260508183827 65 290 1.0 6.0 0.00 0.00 0.00 25 1009.9
20260508183740 65 212 1.0 6.0 0.00 0.00 0.00 24 1009.9
20260508183630 65 184 2.0 7.0 0.00 0.00 0.00 23 1009.9
20260508183535 65 315 2.0 9.0 0.00 0.00 0.00 23 1009.9
20260508183446 65 283 2.0 9.0 0.00 0.00 0.00 25 1009.9
20260508183337 65 297 2.0 11.0 0.00 0.00 0.00 27 1010.0
20260508183248 65 278 1.0 11.0 0.00 0.00 0.00 26 1010.0
20260508183143 65 258 2.0 11.0 0.00 0.00 0.00 26 1010.0
20260508183046 65 208 2.0 11.0 0.00 0.00 0.00 26 1010.0
20260508182936 64 228 2.0 11.0 0.00 0.00 0.00 25 1010.0
20260508182827 65 359 3.0 11.0 0.00 0.00 0.00 24 1010.0
20260508182738 65 206 4.0 11.0 0.00 0.00 0.00 25 1010.0
20260508182652 65 229 4.0 11.0 0.00 0.00 0.00 25 1010.0
20260508182602 65 208 3.0 11.0 0.00 0.00 0.00 25 1010.0
20260508182433 65 214 1.0 7.0 0.00 0.00 0.00 26 1010.0
20260508182344 65 34 1.0 7.0 0.00 0.00 0.00 26 1010.0
20260508182235 65 12 1.0 7.0 0.00 0.00 0.00 26 1010.0
20260508182130 65 332 1.0 7.0 0.00 0.00 0.00 26 1010.0
20260508182036 65 359 2.0 7.0 0.00 0.00 0.00 27 1010.0
20260508181928 65 215 3.0 7.0 0.00 0.00 0.00 26 1010.1
20260508181839 65 210 2.0 5.0 0.00 0.00 0.00 27 1010.0
20260508181750 65 308 1.0 5.0 0.00 0.00 0.00 25 1010.0
20260508181639 65 238 1.0 7.0 0.00 0.00 0.00 26 1010.0
20260508181547 65 313 1.0 7.0 0.00 0.00 0.00 28 1010.1
20260508181457 65 6 2.0 7.0 0.00 0.00 0.00 24 1010.0
20260508181326 65 310 2.0 7.0 0.00 0.00 0.00 24 1010.1
20260508181238 65 349 1.0 7.0 0.00 0.00 0.00 27 1010.1
20260508181133 65 146 1.0 7.0 0.00 0.00 0.00 27 1010.1
20260508181039 65 101 2.0 7.0 0.00 0.00 0.00 26 1010.1
20260508180949 65 216 3.0 7.0 0.00 0.00 0.00 26 1010.1
20260508180901 65 196 3.0 7.0 0.00 0.00 0.00 26 1010.1
20260508180813 65 142 2.0 7.0 0.00 0.00 0.00 26 1010.1
20260508180703 65 250 2.0 7.0 0.00 0.00 0.00 25 1010.1
20260508180615 65 305 1.0 7.0 0.00 0.00 0.00 25 1010.1
20260508180459 65 243 1.0 7.0 0.00 0.00 0.00 25 1010.2
20260508180351 64 229 2.0 7.0 0.00 0.00 0.00 26 1010.2
20260508180302 64 129 2.0 7.0 0.00 0.00 0.00 25 1010.2
20260508180151 64 137 3.0 6.0 0.00 0.00 0.00 24 1010.2
20260508180037 64 219 2.0 6.0 0.00 0.00 0.00 24 1010.2
20260508175931 65 236 1.0 6.0 0.00 0.00 0.00 24 1010.2
20260508175843 65 296 1.0 6.0 0.00 0.00 0.00 24 1010.2
20260508175733 65 255 1.0 7.0 0.00 0.00 0.00 24 1010.1
20260508175625 65 44 2.0 7.0 0.00 0.00 0.00 23 1010.2
20260508175529 65 286 2.0 7.0 0.00 0.00 0.00 23 1010.2
20260508175441 65 300 2.0 7.0 0.00 0.00 0.00 23 1010.2
20260508175352 66 331 2.0 7.0 0.00 0.00 0.00 22 1010.2
20260508175243 66 285 2.0 7.0 0.00 0.00 0.00 25 1010.2
20260508175135 66 227 2.0 7.0 0.00 0.00 0.00 25 1010.2
20260508175025 66 301 2.0 7.0 0.00 0.00 0.00 25 1010.2
20260508174937 66 94 3.0 7.0 0.00 0.00 0.00 25 1010.2
20260508174847 66 315 2.0 5.0 0.00 0.00 0.00 24 1010.2
20260508174759 66 184 1.0 3.0 0.00 0.00 0.00 24 1010.3
20260508174649 66 79 1.0 3.0 0.00 0.00 0.00 25 1010.3
20260508174600 66 122 1.0 6.0 0.00 0.00 0.00 25 1010.2
20260508174431 65 288 1.0 6.0 0.00 0.00 0.00 26 1010.3
20260508174343 65 151 1.0 6.0 0.00 0.00 0.00 25 1010.3
20260508174234 65 124 0.0 6.0 0.00 0.00 0.00 26 1010.3
20260508174144 65 239 0.0 6.0 0.00 0.00 0.00 26 1010.3
20260508174038 64 193 1.0 6.0 0.00 0.00 0.00 26 1010.4
20260508173929 64 182 2.0 7.0 0.00 0.00 0.00 24 1010.4
20260508173839 64 209 2.0 7.0 0.00 0.00 0.00 23 1010.3
20260508173729 64 253 3.0 7.0 0.00 0.00 0.00 24 1010.4
20260508173640 64 236 1.0 7.0 0.00 0.00 0.00 24 1010.4
20260508173525 64 302 2.0 7.0 0.00 0.00 0.00 24 1010.5
20260508173438 64 274 2.0 7.0 0.00 0.00 0.00 23 1010.5
20260508173210 64 166 3.0 8.0 0.00 0.00 0.00 23 1010.5
20260508172925 64 300 4.0 8.0 0.00 0.00 0.00 21 1010.5
20260508172835 65 233 3.0 9.0 0.00 0.00 0.00 22 1010.6
20260508172726 65 241 1.0 9.0 0.00 0.00 0.00 23 1010.6
20260508172638 64 350 2.0 9.0 0.00 0.00 0.00 23 1010.6
20260508172543 64 181 3.0 9.0 0.00 0.00 0.00 23 1010.5
20260508172434 64 160 4.0 9.0 0.00 0.00 0.00 23 1010.6
20260508172328 64 210 3.0 9.0 0.00 0.00 0.00 22 1010.5
20260508172238 65 208 3.0 9.0 0.00 0.00 0.00 23 1010.6
20260508172130 64 240 4.0 9.0 0.00 0.00 0.00 23 1010.5
20260508172035 65 217 4.0 9.0 0.00 0.00 0.00 24 1010.6
20260508171925 65 120 3.0 9.0 0.00 0.00 0.00 22 1010.6
20260508171835 65 219 2.0 6.0 0.00 0.00 0.00 23 1010.6
20260508171727 65 179 2.0 9.0 0.00 0.00 0.00 24 1010.7
20260508171638 65 219 2.0 9.0 0.00 0.00 0.00 23 1010.6
20260508171524 65 162 2.0 9.0 0.00 0.00 0.00 24 1010.6
20260508171441 65 214 3.0 9.0 0.00 0.00 0.00 23 1010.6
20260508171332 65 150 3.0 9.0 0.00 0.00 0.00 24 1010.6
20260508171244 65 200 2.0 9.0 0.00 0.00 0.00 24 1010.7
20260508171137 65 155 2.0 9.0 0.00 0.00 0.00 25 1010.7
20260508171043 65 303 2.0 9.0 0.00 0.00 0.00 24 1010.7
20260508170933 65 300 4.0 9.0 0.00 0.00 0.00 24 1010.7
20260508170846 65 274 5.0 9.0 0.00 0.00 0.00 24 1010.6
20260508170757 65 194 4.0 9.0 0.00 0.00 0.00 23 1010.7
20260508170648 66 257 4.0 7.0 0.00 0.00 0.00 25 1010.7
20260508170559 66 290 2.0 7.0 0.00 0.00 0.00 23 1010.7
20260508170434 66 139 2.0 7.0 0.00 0.00 0.00 23 1010.7
20260508170324 66 158 3.0 7.0 0.00 0.00 0.00 24 1010.8
20260508170235 66 238 2.0 7.0 0.00 0.00 0.00 23 1010.8
20260508170128 66 218 1.0 6.0 0.00 0.00 0.00 24 1010.8
20260508170033 66 132 1.0 6.0 0.00 0.00 0.00 25 1010.8
20260508165925 66 326 2.0 6.0 0.00 0.00 0.00 24 1010.8
20260508165837 66 248 3.0 6.0 0.00 0.00 0.00 23 1010.8
20260508165727 67 244 2.0 6.0 0.00 0.00 0.00 24 1010.8
20260508165642 67 217 1.0 4.0 0.00 0.00 0.00 24 1010.8
20260508165528 67 319 1.0 4.0 0.00 0.00 0.00 23 1010.8
20260508165439 66 234 1.0 4.0 0.00 0.00 0.00 24 1010.8
20260508165331 66 326 1.0 4.0 0.00 0.00 0.00 24 1010.8
20260508165241 66 13 0.0 4.0 0.00 0.00 0.00 24 1010.8
20260508165133 66 360 0.0 4.0 0.00 0.00 0.00 23 1010.8
20260508165038 66 255 1.0 4.0 0.00 0.00 0.00 22 1010.9
20260508164929 66 247 1.0 4.0 0.00 0.00 0.00 23 1010.9
20260508164825 66 246 2.0 4.0 0.00 0.00 0.00 23 1011.0
20260508164737 66 243 2.0 4.0 0.00 0.00 0.00 23 1011.1
20260508164647 66 238 3.0 5.0 0.00 0.00 0.00 24 1011.0
20260508164534 66 168 2.0 5.0 0.00 0.00 0.00 23 1011.0
20260508164444 66 169 2.0 5.0 0.00 0.00 0.00 22 1011.1
20260508164335 66 186 1.0 5.0 0.00 0.00 0.00 23 1011.0
20260508164227 66 201 1.0 5.0 0.00 0.00 0.00 23 1011.1
20260508164138 66 255 1.0 5.0 0.00 0.00 0.00 23 1011.1
20260508164024 66 318 1.0 5.0 0.00 0.00 0.00 22 1011.1
20260508163934 66 259 2.0 5.0 0.00 0.00 0.00 22 1011.1
20260508163849 66 191 1.0 5.0 0.00 0.00 0.00 24 1011.1
20260508163739 65 79 1.0 4.0 0.00 0.00 0.00 24 1011.2
20260508163652 65 331 1.0 4.0 0.00 0.00 0.00 23 1011.2
20260508163558 66 293 1.0 4.0 0.00 0.00 0.00 20 1011.3
20260508163426 66 281 2.0 4.0 0.00 0.00 0.00 21 1011.3
20260508163337 66 275 2.0 4.0 0.00 0.00 0.00 21 1011.2
20260508163250 66 288 1.0 3.0 0.00 0.00 0.00 22 1011.2
20260508163201 66 15 1.0 5.0 0.00 0.00 0.00 22 1011.4
20260508163043 66 349 2.0 7.0 0.00 0.00 0.00 21 1011.4
20260508162954 66 23 1.0 7.0 0.00 0.00 0.00 24 1011.4
20260508162844 66 65 1.0 7.0 0.00 0.00 0.00 25 1011.3
20260508162739 65 73 1.0 7.0 0.00 0.00 0.00 26 1011.4
20260508162631 65 330 1.0 7.0 0.00 0.00 0.00 24 1011.3
20260508162536 65 130 1.0 7.0 0.00 0.00 0.00 25 1011.4
20260508162448 65 96 2.0 7.0 0.00 0.00 0.00 25 1011.4
20260508162358 64 6 2.0 9.0 0.00 0.00 0.00 24 1011.4
20260508162251 64 191 2.0 9.0 0.00 0.00 0.00 27 1011.4
20260508162201 64 279 1.0 9.0 0.00 0.00 0.00 25 1011.3
20260508162026 64 45 2.0 9.0 0.00 0.00 0.00 26 1011.4
20260508161938 64 217 2.0 9.0 0.00 0.00 0.00 25 1011.4
20260508161850 64 210 1.0 9.0 0.00 0.00 0.00 28 1011.4
20260508161740 64 240 2.0 9.0 0.00 0.00 0.00 28 1011.4
20260508161656 64 278 3.0 9.0 0.00 0.00 0.00 26 1011.4
20260508161541 63 244 3.0 9.0 0.00 0.00 0.00 27 1011.5
20260508161432 63 155 2.0 11.0 0.00 0.00 0.00 26 1011.5
20260508161340 63 241 2.0 11.0 0.00 0.00 0.00 26 1011.4
20260508161231 63 119 2.0 11.0 0.00 0.00 0.00 25 1011.4
20260508161141 63 210 3.0 11.0 0.00 0.00 0.00 26 1011.4
20260508161028 63 236 4.0 11.0 0.00 0.00 0.00 26 1011.4
20260508160939 63 235 4.0 11.0 0.00 0.00 0.00 26 1011.4
20260508160830 63 195 4.0 11.0 0.00 0.00 0.00 27 1011.4
20260508160727 64 148 5.0 11.0 0.00 0.00 0.00 26 1011.4
20260508160637 64 190 4.0 11.0 0.00 0.00 0.00 26 1011.4
20260508160525 64 203 4.0 9.0 0.00 0.00 0.00 28 1011.3
20260508160436 64 236 3.0 9.0 0.00 0.00 0.00 27 1011.3
20260508160325 64 188 2.0 6.0 0.00 0.00 0.00 27 1011.3
20260508160237 64 216 2.0 6.0 0.00 0.00 0.00 27 1011.3
20260508160146 64 202 1.0 6.0 0.00 0.00 0.00 28 1011.3
20260508160059 64 219 1.0 6.0 0.00 0.00 0.00 28 1011.3
20260508160005 64 249 2.0 6.0 0.00 0.00 0.00 27 1011.3
20260508155833 64 231 2.0 6.0 0.00 0.00 0.00 27 1011.3
20260508155748 64 340 3.0 6.0 0.00 0.00 0.00 26 1011.4
20260508155639 64 294 3.0 6.0 0.00 0.00 0.00 26 1011.5
20260508155546 64 271 3.0 6.0 0.00 0.00 0.00 27 1011.5
20260508155456 63 141 1.0 9.0 0.00 0.00 0.00 28 1011.4
20260508155325 63 119 1.0 9.0 0.00 0.00 0.00 27 1011.5
20260508155237 63 121 1.0 9.0 0.00 0.00 0.00 30 1011.4
20260508155125 63 148 2.0 9.0 0.00 0.00 0.00 27 1011.4
20260508155031 63 208 1.0 9.0 0.00 0.00 0.00 28 1011.4
20260508154942 62 246 2.0 9.0 0.00 0.00 0.00 29 1011.4
20260508154833 62 266 4.0 9.0 0.00 0.00 0.00 27 1011.4
20260508154729 63 167 5.0 9.0 0.00 0.00 0.00 27 1011.4
20260508154640 63 199 3.0 9.0 0.00 0.00 0.00 27 1011.4
20260508154547 63 177 2.0 6.0 0.00 0.00 0.00 28 1011.3
20260508154436 63 185 3.0 6.0 0.00 0.00 0.00 28 1011.3
20260508154325 63 271 1.0 5.0 0.00 0.00 0.00 28 1011.3
20260508154236 63 224 1.0 5.0 0.00 0.00 0.00 28 1011.3
20260508154127 63 215 1.0 5.0 0.00 0.00 0.00 28 1011.3
20260508154032 63 145 1.0 5.0 0.00 0.00 0.00 28 1011.3
20260508153944 63 298 1.0 6.0 0.00 0.00 0.00 28 1011.4
20260508153834 63 275 2.0 6.0 0.00 0.00 0.00 28 1011.4
20260508153729 63 218 2.0 7.0 0.00 0.00 0.00 29 1011.3
20260508153640 63 229 1.0 7.0 0.00 0.00 0.00 29 1011.4
20260508153547 62 236 1.0 7.0 0.00 0.00 0.00 28 1011.3
20260508153457 62 309 2.0 7.0 0.00 0.00 0.00 27 1011.3
20260508153347 62 177 3.0 7.0 0.00 0.00 0.00 27 1011.3
20260508153215 62 134 3.0 7.0 0.00 0.00 0.00 27 1011.4
20260508153127 62 124 3.0 7.0 0.00 0.00 0.00 26 1011.3
20260508153012 62 234 3.0 8.0 0.00 0.00 0.00 26 1011.4
20260508152901 62 160 2.0 8.0 0.00 0.00 0.00 27 1011.4
20260508152731 62 190 2.0 8.0 0.00 0.00 0.00 26 1011.3
20260508152643 62 137 2.0 8.0 0.00 0.00 0.00 26 1011.4
20260508152553 62 289 2.0 8.0 0.00 0.00 0.00 26 1011.4
20260508152443 62 310 3.0 8.0 0.00 0.00 0.00 27 1011.4
20260508152333 62 154 3.0 8.0 0.00 0.00 0.00 26 1011.5
20260508152225 62 243 3.0 8.0 0.00 0.00 0.00 27 1011.4
20260508152135 62 206 3.0 8.0 0.00 0.00 0.00 25 1011.4
20260508152043 62 231 2.0 8.0 0.00 0.00 0.00 26 1011.5
20260508151933 62 306 2.0 8.0 0.00 0.00 0.00 26 1011.5
20260508151844 62 304 2.0 8.0 0.00 0.00 0.00 28 1011.4
20260508151734 62 231 1.0 8.0 0.00 0.00 0.00 29 1011.4
20260508151648 62 243 3.0 8.0 0.00 0.00 0.00 28 1011.4
20260508151600 62 212 3.0 8.0 0.00 0.00 0.00 27 1011.5
20260508151505 62 228 2.0 4.0 0.00 0.00 0.00 28 1011.4
20260508151357 62 160 2.0 4.0 0.00 0.00 0.00 27 1011.4
20260508151248 62 144 2.0 4.0 0.00 0.00 0.00 29 1011.5
20260508151158 62 359 1.0 4.0 0.00 0.00 0.00 28 1011.6
20260508151043 62 249 1.0 6.0 0.00 0.00 0.00 32 1011.6
20260508150933 62 295 2.0 9.0 0.00 0.00 0.00 31 1011.6
20260508150843 62 172 1.0 9.0 0.00 0.00 0.00 32 1011.6
20260508150757 62 219 1.0 9.0 0.00 0.00 0.00 29 1011.6
20260508150709 62 219 1.0 9.0 0.00 0.00 0.00 33 1011.6
20260508150538 61 190 1.0 9.0 0.00 0.00 0.00 36 1011.6
20260508150433 61 221 2.0 9.0 0.00 0.00 0.00 34 1011.6
20260508150325 61 238 3.0 9.0 0.00 0.00 0.00 34 1011.5
20260508150237 62 250 4.0 9.0 0.00 0.00 0.00 33 1011.5
20260508150127 62 259 2.0 9.0 0.00 0.00 0.00 35 1011.4
20260508150035 62 257 1.0 6.0 0.00 0.00 0.00 35 1011.6
20260508145945 62 276 2.0 6.0 0.00 0.00 0.00 36 1011.6
20260508145835 61 224 2.0 6.0 0.00 0.00 0.00 37 1011.6
20260508145726 61 257 1.0 7.0 0.00 0.00 0.00 38 1011.5
20260508145637 61 11 1.0 7.0 0.00 0.00 0.00 39 1011.5
20260508145547 61 23 1.0 7.0 0.00 0.00 0.00 39 1011.6
20260508145437 61 34 1.0 7.0 0.00 0.00 0.00 39 1011.5
20260508145348 61 139 2.0 7.0 0.00 0.00 0.00 38 1011.5
20260508145237 61 176 2.0 7.0 0.00 0.00 0.00 42 1011.5
20260508145128 61 189 3.0 7.0 0.00 0.00 0.00 41 1011.6
20260508145034 61 158 3.0 7.0 0.00 0.00 0.00 39 1011.6
20260508144926 61 153 3.0 7.0 0.00 0.00 0.00 42 1011.6
20260508144836 61 223 2.0 6.0 0.00 0.00 0.00 42 1011.7
20260508144726 61 211 1.0 6.0 0.00 0.00 0.00 43 1011.6
20260508144638 61 169 1.0 6.0 0.00 0.00 0.00 43 1011.6
20260508144527 61 218 1.0 6.0 0.00 0.00 0.00 42 1011.7
20260508144439 60 167 1.0 6.0 0.00 0.00 0.00 43 1011.7
20260508144350 60 296 1.0 3.0 0.00 0.00 0.00 42 1011.6
20260508144239 60 70 1.0 4.0 0.00 0.00 0.00 46 1011.6
20260508144151 60 285 1.0 4.0 0.00 0.00 0.00 46 1011.6
20260508144037 60 49 1.0 4.0 0.00 0.00 0.00 46 1011.6
20260508143928 60 230 1.0 5.0 0.00 0.00 0.00 45 1011.6
20260508143839 60 307 1.0 5.0 0.00 0.00 0.00 45 1011.6
20260508143731 60 338 1.0 5.0 0.00 0.00 0.00 46 1011.6
20260508143641 59 328 1.0 5.0 0.00 0.00 0.00 46 1011.6
20260508143558 59 18 1.0 5.0 0.00 0.00 0.00 46 1011.6
20260508143504 59 241 2.0 5.0 0.00 0.00 0.00 46 1011.6
20260508143334 59 211 2.0 5.0 0.00 0.00 0.00 46 1011.5
20260508143246 59 206 2.0 5.0 0.00 0.00 0.00 47 1011.5
20260508143158 59 174 3.0 5.0 0.00 0.00 0.00 47 1011.5
20260508143044 59 226 4.0 5.0 0.00 0.00 0.00 45 1011.5
20260508142937 59 212 3.0 5.0 0.00 0.00 0.00 47 1011.5
20260508142827 59 264 2.0 5.0 0.00 0.00 0.00 49 1011.5
20260508142739 59 205 1.0 5.0 0.00 0.00 0.00 50 1011.4
20260508142635 59 213 0.0 5.0 0.00 0.00 0.00 50 1011.4
20260508142542 59 238 0.0 5.0 0.00 0.00 0.00 50 1011.4
20260508142432 59 245 1.0 5.0 0.00 0.00 0.00 50 1011.5
20260508142324 58 203 3.0 5.0 0.00 0.00 0.00 50 1011.5
20260508142237 58 41 3.0 5.0 0.00 0.00 0.00 50 1011.4
20260508142148 59 164 2.0 5.0 0.00 0.00 0.00 52 1011.4
20260508142054 58 202 1.0 5.0 0.00 0.00 0.00 54 1011.5
20260508141943 58 135 1.0 5.0 0.00 0.00 0.00 55 1011.5
20260508141835 58 206 1.0 5.0 0.00 0.00 0.00 55 1011.6
20260508141747 58 158 1.0 5.0 0.00 0.00 0.00 55 1011.6
20260508141642 58 98 2.0 5.0 0.00 0.00 0.00 55 1011.7
20260508141526 58 75 2.0 6.0 0.00 0.00 0.00 56 1011.7
20260508141438 58 108 1.0 6.0 0.00 0.00 0.00 56 1011.7
20260508141328 57 122 1.0 7.0 0.00 0.00 0.00 56 1011.8
20260508141240 57 124 1.0 7.0 0.00 0.00 0.00 57 1011.7
20260508141151 57 159 1.0 7.0 0.00 0.00 0.00 57 1011.7
20260508141101 57 219 2.0 7.0 0.00 0.00 0.00 57 1011.7
20260508140930 57 211 2.0 7.0 0.00 0.00 0.00 57 1011.8
20260508140841 57 115 1.0 7.0 0.00 0.00 0.00 57 1011.8
20260508140732 56 205 2.0 7.0 0.00 0.00 0.00 58 1011.8
20260508140625 56 190 4.0 7.0 0.00 0.00 0.00 58 1011.8
20260508140531 56 221 4.0 7.0 0.00 0.00 0.00 57 1011.9
20260508140443 56 228 3.0 6.0 0.00 0.00 0.00 57 1011.8
20260508140354 56 217 2.0 4.0 0.00 0.00 0.00 59 1011.8
20260508140243 56 134 1.0 5.0 0.00 0.00 0.00 59 1011.8
20260508140134 56 167 1.0 5.0 0.00 0.00 0.00 59 1011.9
20260508140040 56 177 1.0 5.0 0.00 0.00 0.00 59 1011.8
20260508135931 55 219 1.0 5.0 0.00 0.00 0.00 59 1011.9
20260508135843 55 223 2.0 5.0 0.00 0.00 0.00 59 1011.9
20260508135734 55 229 2.0 5.0 0.00 0.00 0.00 60 1011.9
20260508135629 55 225 2.0 5.0 0.00 0.00 0.00 60 1011.9
20260508135534 55 214 2.0 5.0 0.00 0.00 0.00 60 1011.9
20260508135426 55 204 3.0 5.0 0.00 0.00 0.00 60 1011.9
20260508135337 55 182 2.0 4.0 0.00 0.00 0.00 60 1012.0
20260508135245 55 134 2.0 4.0 0.00 0.00 0.00 60 1011.9
20260508135157 55 224 2.0 4.0 0.00 0.00 0.00 60 1011.9
20260508135106 54 220 2.0 4.0 0.00 0.00 0.00 60 1012.0
20260508134951 54 210 1.0 4.0 0.00 0.00 0.00 60 1012.0
20260508134840 54 202 2.0 4.0 0.00 0.00 0.00 60 1012.0
20260508134730 54 208 2.0 4.0 0.00 0.00 0.00 61 1011.9
20260508134645 54 217 1.0 3.0 0.00 0.00 0.00 61 1011.9
20260508134558 54 203 1.0 5.0 0.00 0.00 0.00 61 1011.9
20260508134443 54 143 1.0 5.0 0.00 0.00 0.00 62 1011.9
20260508134334 53 174 1.0 5.0 0.00 0.00 0.00 62 1011.9
20260508134226 53 217 1.0 5.0 0.00 0.00 0.00 62 1011.9
20260508134137 53 217 1.0 5.0 0.00 0.00 0.00 62 1011.9
20260508134043 53 70 1.0 5.0 0.00 0.00 0.00 63 1011.9
20260508133935 53 129 1.0 5.0 0.00 0.00 0.00 62 1011.9
20260508133825 53 243 2.0 5.0 0.00 0.00 0.00 62 1012.0
20260508133740 53 214 3.0 5.0 0.00 0.00 0.00 63 1012.0
20260508133631 53 228 2.0 5.0 0.00 0.00 0.00 63 1012.0
20260508133537 53 209 1.0 5.0 0.00 0.00 0.00 64 1012.0
20260508133448 53 179 2.0 5.0 0.00 0.00 0.00 64 1012.0
20260508133358 52 194 1.0 5.0 0.00 0.00 0.00 66 1011.9
20260508133250 52 231 0.0 5.0 0.00 0.00 0.00 66 1011.9
20260508133201 52 255 1.0 5.0 0.00 0.00 0.00 66 1011.9
20260508133047 52 230 1.0 5.0 0.00 0.00 0.00 66 1011.8
20260508132958 52 217 2.0 6.0 0.00 0.00 0.00 66 1011.9
20260508132825 52 200 2.0 6.0 0.00 0.00 0.00 66 1011.9
20260508132737 52 228 2.0 6.0 0.00 0.00 0.00 66 1012.0
20260508132631 52 165 3.0 6.0 0.00 0.00 0.00 66 1012.0
20260508132537 52 217 3.0 6.0 0.00 0.00 0.00 66 1012.1
20260508132429 52 122 2.0 6.0 0.00 0.00 0.00 66 1012.0
20260508132340 52 214 2.0 6.0 0.00 0.00 0.00 66 1012.1
20260508132230 52 212 3.0 6.0 0.00 0.00 0.00 65 1012.1
20260508132141 52 200 3.0 6.0 0.00 0.00 0.00 66 1012.1
20260508132048 52 169 2.0 5.0 0.00 0.00 0.00 66 1012.1
20260508131937 52 127 1.0 5.0 0.00 0.00 0.00 66 1012.1
20260508131848 51 231 2.0 5.0 0.00 0.00 0.00 66 1012.1
20260508131738 51 249 2.0 5.0 0.00 0.00 0.00 66 1012.2
20260508131631 51 248 2.0 5.0 0.00 0.00 0.00 66 1012.1
20260508131537 51 177 2.0 5.0 0.00 0.00 0.00 67 1012.1
20260508131429 51 221 2.0 5.0 0.00 0.00 0.00 67 1012.1
20260508131341 51 202 2.0 5.0 0.00 0.00 0.00 67 1012.1
20260508131251 51 230 2.0 5.0 0.00 0.00 0.00 67 1012.1
20260508131142 51 175 1.0 5.0 0.00 0.00 0.00 68 1012.1
20260508131026 51 119 1.0 5.0 0.00 0.00 0.00 68 1012.1
20260508130936 51 153 2.0 5.0 0.00 0.00 0.00 68 1012.0
20260508130850 51 188 2.0 5.0 0.00 0.00 0.00 68 1012.0
20260508130802 51 211 1.0 5.0 0.00 0.00 0.00 69 1012.1
20260508130714 51 238 2.0 4.0 0.00 0.00 0.00 69 1012.1
20260508130606 50 191 2.0 4.0 0.00 0.00 0.00 69 1012.1
20260508130456 50 142 2.0 3.0 0.00 0.00 0.00 69 1012.1
20260508130327 50 212 1.0 3.0 0.00 0.00 0.00 70 1012.1
20260508130237 50 193 1.0 3.0 0.00 0.00 0.00 70 1012.2
20260508130129 50 196 1.0 3.0 0.00 0.00 0.00 70 1012.1
20260508130035 50 205 1.0 3.0 0.00 0.00 0.00 71 1012.1
20260508125926 50 169 1.0 3.0 0.00 0.00 0.00 70 1012.2
20260508125837 50 210 1.0 3.0 0.00 0.00 0.00 71 1012.2
20260508125746 49 194 1.0 3.0 0.00 0.00 0.00 71 1012.1
20260508125637 49 200 1.0 3.0 0.00 0.00 0.00 71 1012.2
20260508125526 49 210 1.0 3.0 0.00 0.00 0.00 72 1012.2
20260508125436 49 210 1.0 3.0 0.00 0.00 0.00 72 1012.1
20260508125327 49 242 1.0 3.0 0.00 0.00 0.00 72 1012.1
20260508125239 49 229 2.0 3.0 0.00 0.00 0.00 72 1012.1
20260508125149 48 214 2.0 3.0 0.00 0.00 0.00 73 1012.1
20260508125055 48 204 0.0 3.0 0.00 0.00 0.00 73 1012.0
20260508124924 48 174 1.0 3.0 0.00 0.00 0.00 73 1012.1
20260508124837 48 175 1.0 3.0 0.00 0.00 0.00 73 1012.1
20260508124729 48 131 1.0 2.0 0.00 0.00 0.00 74 1012.1
20260508124643 48 215 0.0 2.0 0.00 0.00 0.00 74 1012.0
20260508124529 48 222 0.0 2.0 0.00 0.00 0.00 74 1012.1
20260508124439 47 222 1.0 2.0 0.00 0.00 0.00 74 1012.0
20260508124331 47 222 1.0 2.0 0.00 0.00 0.00 75 1012.0
20260508124242 47 230 0.0 2.0 0.00 0.00 0.00 75 1012.1
20260508124133 47 195 1.0 2.0 0.00 0.00 0.00 75 1012.1
20260508124039 47 180 0.0 2.0 0.00 0.00 0.00 75 1012.1
20260508123928 47 203 1.0 2.0 0.00 0.00 0.00 75 1012.2
20260508123839 47 203 1.0 2.0 0.00 0.00 0.00 75 1012.1
20260508123658 46 167 1.0 2.0 0.00 0.00 0.00 76 1012.2
20260508123526 46 148 1.0 2.0 0.00 0.00 0.00 76 1012.2
20260508123437 46 184 1.0 2.0 0.00 0.00 0.00 76 1012.2
20260508123349 46 186 1.0 2.0 0.00 0.00 0.00 76 1012.2
20260508123238 46 200 0.0 1.0 0.00 0.00 0.00 76 1012.1
20260508123151 46 219 0.0 1.0 0.00 0.00 0.00 77 1012.1
20260508123036 45 199 0.0 1.0 0.00 0.00 0.00 77 1012.2
20260508122928 45 199 0.0 1.0 0.00 0.00 0.00 77 1012.1
20260508122839 45 199 0.0 1.0 0.00 0.00 0.00 77 1012.2
20260508122753 45 199 1.0 1.0 0.00 0.00 0.00 77 1012.2
20260508122704 45 218 0.0 1.0 0.00 0.00 0.00 77 1012.1
20260508122532 44 215 0.0 0.0 0.00 0.00 0.00 78 1012.1
20260508122424 44 215 0.0 0.0 0.00 0.00 0.00 78 1012.1
20260508122337 44 222 0.0 0.0 0.00 0.00 0.00 78 1012.1
20260508122226 44 190 0.0 0.0 0.00 0.00 0.00 78 1012.1
20260508122137 44 217 0.0 0.0 0.00 0.00 0.00 79 1012.1
20260508122044 44 217 0.0 0.0 0.00 0.00 0.00 79 1012.1
20260508121935 43 217 0.0 0.0 0.00 0.00 0.00 79 1012.1
20260508121846 43 217 0.0 0.0 0.00 0.00 0.00 80 1012.0
20260508121736 43 217 0.0 0.0 0.00 0.00 0.00 80 1012.1
20260508121650 43 217 0.0 0.0 0.00 0.00 0.00 81 1012.1
20260508121605 42 217 0.0 0.0 0.00 0.00 0.00 81 1012.1
20260508121434 42 217 0.0 0.0 0.00 0.00 0.00 82 1012.0
20260508121345 42 217 0.0 0.0 0.00 0.00 0.00 82 1011.9
20260508121257 42 217 0.0 0.0 0.00 0.00 0.00 83 1011.9
20260508121208 42 217 0.0 0.0 0.00 0.00 0.00 83 1012.1
20260508121120 41 217 0.0 0.0 0.00 0.00 0.00 85 1012.0
20260508121005 41 216 0.0 0.0 0.00 0.00 0.00 85 1011.9
20260508120834 41 217 0.0 0.0 0.00 0.00 0.00 86 1011.9
20260508120746 40 217 0.0 0.0 0.00 0.00 0.00 86 1011.9
20260508120656 40 217 0.0 0.0 0.00 0.00 0.00 87 1011.9
20260508120541 40 217 0.0 0.0 0.00 0.00 0.00 87 1012.0
20260508120458 40 217 0.0 0.0 0.00 0.00 0.00 87 1012.0
20260508120410 40 217 0.0 0.0 0.00 0.00 0.00 87 1011.9
20260508120320 39 217 0.0 0.0 0.00 0.00 0.00 88 1011.9
20260508120210 39 217 0.0 0.0 0.00 0.00 0.00 89 1011.8
20260508120122 39 217 0.0 0.0 0.00 0.00 0.00 90 1011.8
20260508120006 39 217 0.0 0.0 0.00 0.00 0.00 90 1011.8
20260508115858 38 217 0.0 0.0 0.00 0.00 0.00 91 1011.8
20260508115809 38 217 0.0 0.0 0.00 0.00 0.00 91 1011.7
20260508115659 38 217 0.0 0.0 0.00 0.00 0.00 91 1011.7
20260508115543 38 217 0.0 0.0 0.00 0.00 0.00 91 1011.7
20260508115433 38 217 0.0 0.0 0.00 0.00 0.00 91 1011.7
20260508115329 38 217 0.0 0.0 0.00 0.00 0.00 91 1011.7
20260508115239 38 217 0.0 0.0 0.00 0.00 0.00 91 1011.7
20260508115130 38 217 0.0 0.0 0.00 0.00 0.00 91 1011.7
20260508115036 37 217 0.0 0.0 0.00 0.00 0.00 91 1011.7
20260508114948 37 217 0.0 0.0 0.00 0.00 0.00 91 1011.6
20260508114839 37 217 0.0 0.0 0.00 0.00 0.00 91 1011.6
20260508114730 37 217 0.0 0.0 0.00 0.00 0.00 91 1011.7
20260508114642 37 217 0.0 0.0 0.00 0.00 0.00 91 1011.6
20260508114529 37 217 0.0 0.0 0.00 0.00 0.00 91 1011.6
20260508114439 37 217 0.0 0.0 0.00 0.00 0.00 91 1011.6
20260508114333 37 217 0.0 0.0 0.00 0.00 0.00 91 1011.6
20260508114245 37 217 0.0 0.0 0.00 0.00 0.00 91 1011.6
20260508114157 36 217 0.0 0.0 0.00 0.00 0.00 91 1011.6
20260508114107 36 217 0.0 0.0 0.00 0.00 0.00 91 1011.6
20260508114013 36 217 0.0 0.0 0.00 0.00 0.00 91 1011.6
20260508113925 36 217 0.0 0.0 0.00 0.00 0.00 91 1011.7
20260508113815 36 217 0.0 0.0 0.00 0.00 0.00 91 1011.5
20260508113726 36 217 0.0 0.0 0.00 0.00 0.00 91 1011.6
20260508113618 36 217 0.0 0.0 0.00 0.00 0.00 92 1011.6
20260508113439 36 217 0.0 0.0 0.00 0.00 0.00 91 1011.4
20260508113330 35 217 0.0 0.0 0.00 0.00 0.00 91 1011.4
20260508113226 35 217 0.0 0.0 0.00 0.00 0.00 91 1011.4
20260508113138 35 217 0.0 0.0 0.00 0.00 0.00 91 1011.4
20260508113045 35 217 0.0 0.0 0.00 0.00 0.00 91 1011.5
20260508112936 35 217 0.0 0.0 0.00 0.00 0.00 91 1011.6
20260508112827 35 217 0.0 0.0 0.00 0.00 0.00 91 1011.6
20260508112737 35 217 0.0 0.0 0.00 0.00 0.00 91 1011.5
20260508112651 35 217 0.0 0.0 0.00 0.00 0.00 91 1011.5
20260508112602 35 217 0.0 0.0 0.00 0.00 0.00 91 1011.5
20260508112431 35 217 0.0 0.0 0.00 0.00 0.00 91 1011.6
20260508112327 35 217 0.0 0.0 0.00 0.00 0.00 92 1011.6
20260508112238 35 217 0.0 0.0 0.00 0.00 0.00 92 1011.6
20260508112129 35 217 0.0 0.0 0.00 0.00 0.00 91 1011.6
20260508112035 34 217 0.0 0.0 0.00 0.00 0.00 91 1011.6
20260508111926 34 217 0.0 0.0 0.00 0.00 0.00 91 1011.6
20260508111836 34 217 0.0 0.0 0.00 0.00 0.00 91 1011.6
20260508111747 34 217 0.0 0.0 0.00 0.00 0.00 91 1011.4
20260508111658 34 217 0.0 0.0 0.00 0.00 0.00 91 1011.5
20260508111542 34 217 0.0 0.0 0.00 0.00 0.00 91 1011.5
20260508111436 34 217 0.0 0.0 0.00 0.00 0.00 91 1011.4
20260508111346 34 217 0.0 0.0 0.00 0.00 0.00 91 1011.5
20260508111258 34 217 0.0 0.0 0.00 0.00 0.00 91 1011.5
20260508111210 34 217 0.0 0.0 0.00 0.00 0.00 91 1011.4
20260508111121 34 217 0.0 0.0 0.00 0.00 0.00 91 1011.5
20260508111007 34 217 0.0 0.0 0.00 0.00 0.00 91 1011.5
20260508110858 34 217 0.0 0.0 0.00 0.00 0.00 90 1011.6
20260508110728 34 217 0.0 0.0 0.00 0.00 0.00 90 1011.4
20260508110639 34 217 0.0 0.0 0.00 0.00 0.00 90 1011.4
20260508110525 34 217 0.0 0.0 0.00 0.00 0.00 90 1011.4
20260508110436 34 217 0.0 0.0 0.00 0.00 0.00 90 1011.5
20260508110351 34 217 0.0 0.0 0.00 0.00 0.00 91 1011.5
20260508110241 34 217 0.0 0.0 0.00 0.00 0.00 91 1011.4
20260508110154 34 217 0.0 0.0 0.00 0.00 0.00 90 1011.4
20260508110106 33 217 0.0 0.0 0.00 0.00 0.00 90 1011.4
20260508105955 33 217 0.0 0.0 0.00 0.00 0.00 90 1011.4
20260508105826 33 217 0.0 0.0 0.00 0.00 0.00 90 1011.4
20260508105737 33 217 0.0 0.0 0.00 0.00 0.00 90 1011.4
20260508105628 34 217 0.0 0.0 0.00 0.00 0.00 90 1011.5
20260508105534 34 217 0.0 0.0 0.00 0.00 0.00 90 1011.4
20260508105426 34 217 0.0 0.0 0.00 0.00 0.00 90 1011.5
20260508105343 34 217 0.0 0.0 0.00 0.00 0.00 90 1011.4
20260508105233 34 217 0.0 0.0 0.00 0.00 0.00 90 1011.5
20260508105146 34 217 0.0 0.0 0.00 0.00 0.00 90 1011.5
20260508105051 34 217 0.0 0.0 0.00 0.00 0.00 90 1011.4
20260508104941 34 217 0.0 0.0 0.00 0.00 0.00 90 1011.4
20260508104853 34 217 0.0 0.0 0.00 0.00 0.00 90 1011.4
20260508104743 34 217 0.0 0.0 0.00 0.00 0.00 90 1011.5
20260508104634 34 217 0.0 0.0 0.00 0.00 0.00 90 1011.5
20260508104540 34 217 0.0 0.0 0.00 0.00 0.00 90 1011.5
20260508104432 34 217 0.0 0.0 0.00 0.00 0.00 90 1011.5
20260508104348 34 217 0.0 0.0 0.00 0.00 0.00 90 1011.5
20260508104258 33 217 0.0 0.0 0.00 0.00 0.00 90 1011.5
20260508104147 34 217 0.0 0.0 0.00 0.00 0.00 90 1011.5
20260508104059 33 217 0.0 0.0 0.00 0.00 0.00 90 1011.6
20260508104005 33 217 0.0 0.0 0.00 0.00 0.00 90 1011.4
20260508103918 33 217 0.0 0.0 0.00 0.00 0.00 90 1011.4
20260508103828 33 217 0.0 0.0 0.00 0.00 0.00 90 1011.4
20260508103719 33 217 0.0 0.0 0.00 0.00 0.00 90 1011.3
20260508103608 33 217 0.0 0.0 0.00 0.00 0.00 90 1011.3
20260508103453 33 217 0.0 0.0 0.00 0.00 0.00 90 1011.3
20260508103404 33 217 0.0 0.0 0.00 0.00 0.00 90 1011.4
20260508103232 33 217 0.0 0.0 0.00 0.00 0.00 90 1011.3
20260508103126 33 217 0.0 0.0 0.00 0.00 0.00 90 1011.3
20260508103032 33 217 0.0 0.0 0.00 0.00 0.00 90 1011.3
20260508102943 33 217 0.0 0.0 0.00 0.00 0.00 89 1011.3
20260508102834 33 217 0.0 0.0 0.00 0.00 0.00 89 1011.4
20260508102725 33 217 0.0 0.0 0.00 0.00 0.00 89 1011.4
20260508102636 33 217 0.0 0.0 0.00 0.00 0.00 89 1011.3
20260508102542 33 217 0.0 0.0 0.00 0.00 0.00 88 1011.4
20260508102435 33 217 0.0 0.0 0.00 0.00 0.00 88 1011.3
20260508102327 33 217 0.0 0.0 0.00 0.00 0.00 88 1011.4
20260508102242 33 217 0.0 0.0 0.00 0.00 0.00 89 1011.3
20260508102133 34 217 0.0 0.0 0.00 0.00 0.00 88 1011.3
20260508102038 34 217 0.0 0.0 0.00 0.00 0.00 88 1011.3
20260508101930 34 217 0.0 0.0 0.00 0.00 0.00 89 1011.3
20260508101843 34 217 0.0 0.0 0.00 0.00 0.00 89 1011.2
20260508101735 34 217 0.0 0.0 0.00 0.00 0.00 89 1011.3
20260508101626 34 217 0.0 0.0 0.00 0.00 0.00 89 1011.3
20260508101530 34 217 0.0 0.0 0.00 0.00 0.00 89 1011.3
20260508101427 34 217 0.0 0.0 0.00 0.00 0.00 89 1011.3
20260508101339 34 217 0.0 0.0 0.00 0.00 0.00 89 1011.3
20260508101251 34 217 0.0 0.0 0.00 0.00 0.00 89 1011.2
20260508101141 34 217 0.0 0.0 0.00 0.00 0.00 89 1011.3
20260508101026 34 217 0.0 0.0 0.00 0.00 0.00 89 1011.2
20260508100936 34 217 0.0 0.0 0.00 0.00 0.00 89 1011.3
20260508100826 34 217 0.0 0.0 0.00 0.00 0.00 88 1011.3
20260508100739 34 217 0.0 0.0 0.00 0.00 0.00 88 1011.3
20260508100629 34 217 0.0 0.0 0.00 0.00 0.00 88 1011.2
20260508100534 34 217 0.0 0.0 0.00 0.00 0.00 88 1011.3
20260508100429 34 217 0.0 0.0 0.00 0.00 0.00 89 1011.3
20260508100341 34 217 0.0 0.0 0.00 0.00 0.00 89 1011.3
20260508100231 34 217 0.0 0.0 0.00 0.00 0.00 88 1011.3
20260508100142 34 217 0.0 0.0 0.00 0.00 0.00 88 1011.3
20260508100047 34 217 0.0 0.0 0.00 0.00 0.00 88 1011.3
20260508095958 34 217 0.0 0.0 0.00 0.00 0.00 88 1011.3
20260508095848 34 217 0.0 0.0 0.00 0.00 0.00 88 1011.3
20260508095737 34 217 0.0 0.0 0.00 0.00 0.00 87 1011.4
20260508095649 34 217 0.0 0.0 0.00 0.00 0.00 87 1011.4
20260508095600 34 217 0.0 0.0 0.00 0.00 0.00 87 1011.4
20260508095452 34 217 0.0 0.0 0.00 0.00 0.00 87 1011.4
20260508095407 34 217 0.0 0.0 0.00 0.00 0.00 87 1011.4
20260508095257 34 217 0.0 0.0 0.00 0.00 0.00 87 1011.5
20260508095145 34 217 0.0 0.0 0.00 0.00 0.00 87 1011.5
20260508095058 34 217 0.0 0.0 0.00 0.00 0.00 87 1011.5
20260508095004 34 217 0.0 0.0 0.00 0.00 0.00 87 1011.4
20260508094834 34 217 0.0 0.0 0.00 0.00 0.00 87 1011.5
20260508094726 34 217 0.0 0.0 0.00 0.00 0.00 87 1011.5
20260508094638 34 217 0.0 0.0 0.00 0.00 0.00 87 1011.4
20260508094543 35 217 0.0 0.0 0.00 0.00 0.00 87 1011.5
20260508094433 35 217 0.0 0.0 0.00 0.00 0.00 87 1011.5
20260508094327 35 217 0.0 0.0 0.00 0.00 0.00 87 1011.4
20260508094239 35 217 0.0 0.0 0.00 0.00 0.00 87 1011.5
20260508094147 35 217 0.0 0.0 0.00 0.00 0.00 87 1011.5
20260508094059 35 217 0.0 0.0 0.00 0.00 0.00 87 1011.5
20260508094004 35 217 0.0 0.0 0.00 0.00 0.00 87 1011.5
20260508093833 35 217 0.0 0.0 0.00 0.00 0.00 87 1011.5
20260508093744 35 217 0.0 0.0 0.00 0.00 0.00 87 1011.4
20260508093655 35 217 0.0 0.0 0.00 0.00 0.00 87 1011.4
20260508093540 35 217 0.0 0.0 0.00 0.00 0.00 87 1011.4
20260508093431 35 217 0.0 0.0 0.00 0.00 0.00 87 1011.4
20260508093325 35 217 0.0 0.0 0.00 0.00 0.00 87 1011.4
20260508093237 35 217 0.0 0.0 0.00 0.00 0.00 87 1011.4
20260508093127 35 217 0.0 0.0 0.00 0.00 0.00 88 1011.3
20260508093033 35 217 0.0 0.0 0.00 0.00 0.00 88 1011.5
20260508092926 35 217 0.0 0.0 0.00 0.00 0.00 88 1011.4
20260508092836 35 217 0.0 0.0 0.00 0.00 0.00 88 1011.4
20260508092751 35 217 0.0 0.0 0.00 0.00 0.00 88 1011.4
20260508092702 35 217 0.0 0.0 0.00 0.00 0.00 88 1011.4
20260508092615 35 217 0.0 0.0 0.00 0.00 0.00 87 1011.4
20260508092500 35 217 0.0 0.0 0.00 0.00 0.00 87 1011.4
20260508092334 35 217 0.0 0.0 0.00 0.00 0.00 87 1011.4
20260508092244 35 217 0.0 0.0 0.00 0.00 0.00 88 1011.4
20260508092156 35 217 0.0 0.0 0.00 0.00 0.00 88 1011.4
20260508092107 35 217 0.0 0.0 0.00 0.00 0.00 88 1011.4
20260508091957 35 217 0.0 0.0 0.00 0.00 0.00 88 1011.5
20260508091848 35 217 0.0 0.0 0.00 0.00 0.00 88 1011.4
20260508091739 35 217 0.0 0.0 0.00 0.00 0.00 88 1011.5
20260508091650 35 217 0.0 0.0 0.00 0.00 0.00 88 1011.6
20260508091537 35 217 0.0 0.0 0.00 0.00 0.00 87 1011.5
20260508091427 35 217 0.0 0.0 0.00 0.00 0.00 87 1011.4
20260508091338 35 217 0.0 0.0 0.00 0.00 0.00 87 1011.5
20260508091233 35 217 0.0 0.0 0.00 0.00 0.00 87 1011.5
20260508091124 35 217 0.0 0.0 0.00 0.00 0.00 87 1011.6
20260508091030 35 217 0.0 0.0 0.00 0.00 0.00 87 1011.6
20260508090942 35 217 0.0 0.0 0.00 0.00 0.00 86 1011.6
20260508090833 35 217 0.0 0.0 0.00 0.00 0.00 86 1011.6
20260508090724 35 217 0.0 0.0 0.00 0.00 0.00 86 1011.6
20260508090636 35 217 0.0 0.0 0.00 0.00 0.00 86 1011.6
20260508090542 35 217 0.0 0.0 0.00 0.00 0.00 86 1011.6
20260508090436 35 217 0.0 0.0 0.00 0.00 0.00 86 1011.5
20260508090351 35 217 0.0 0.0 0.00 0.00 0.00 86 1011.5
20260508090302 35 217 0.0 0.0 0.00 0.00 0.00 86 1011.5